Time,TemperatureF,DewpointF,PressureIn,WindDirection,WindDirectionDegrees,WindSpeedMPH,WindSpeedGustMPH,Humidity,HourlyPrecipIn,Conditions,Clouds,dailyrainin,SoftwareType,DateUTC
2013-07-06 00:00:00,71.9,67.5,29.28,SSW,200,0.0,6.0,86,0.00,,,0.00,WUHU216DAVISVP2,2013-07-06 04:00:00,
2013-07-06 00:01:00,71.9,67.5,29.28,SSW,200,1.0,4.0,86,0.00,,,0.00,WUHU216DAVISVP2,2013-07-06 04:01:00,
2013-07-06 00:06:00,71.9,67.5,29.28,SSW,199,1.0,4.0,86,0.00,,,0.00,WUHU216DAVISVP2,2013-07-06 04:06:00,
2013-07-06 00:11:00,71.8,67.4,29.28,SSW,199,0.0,4.0,86,0.00,,,0.00,WUHU216DAVISVP2,2013-07-06 04:11:00,
2013-07-06 00:12:00,71.8,67.4,29.28,SSW,199,2.0,4.0,86,0.00,,,0.00,WUHU216DAVISVP2,2013-07-06 04:12:00,
2013-07-06 00:16:00,71.8,67.4,29.28,SSW,204,0.0,6.0,86,0.00,,,0.00,WUHU216DAVISVP2,2013-07-06 04:16:00,
2013-07-06 00:17:00,71.8,67.4,29.28,SSW,200,5.0,6.0,86,0.00,,,0.00,WUHU216DAVISVP2,2013-07-06 04:17:00,
2013-07-06 00:21:00,71.7,67.6,29.29,SSW,205,0.0,6.0,87,0.00,,,0.00,WUHU216DAVISVP2,2013-07-06 04:21:00,
2013-07-06 00:22:00,71.7,67.6,29.29,SSW,205,2.0,6.0,87,0.00,,,0.00,WUHU216DAVISVP2,2013-07-06 04:22:00,
2013-07-06 00:23:00,71.7,67.6,29.29,SSW,204,1.0,6.0,87,0.00,,,0.00,WUHU216DAVISVP2,2013-07-06 04:23:00,
2013-07-06 00:26:00,71.7,67.6,29.28,South,188,0.0,8.0,87,0.00,,,0.00,WUHU216DAVISVP2,2013-07-06 04:26:00,
2013-07-06 00:27:00,71.7,67.6,29.28,SW,216,0.0,8.0,87,0.00,,,0.00,WUHU216DAVISVP2,2013-07-06 04:27:00,
2013-07-06 00:28:00,71.7,67.6,29.28,SW,216,2.0,8.0,87,0.00,,,0.00,WUHU216DAVISVP2,2013-07-06 04:28:00,
2013-07-06 00:31:00,71.6,67.5,29.28,SSW,212,0.0,8.0,87,0.00,,,0.00,WUHU216DAVISVP2,2013-07-06 04:31:00,
2013-07-06 00:32:00,71.6,67.5,29.28,SSW,206,3.0,8.0,87,0.00,,,0.00,WUHU216DAVISVP2,2013-07-06 04:32:00,
2013-07-06 00:33:00,71.6,67.5,29.28,SSW,205,2.0,8.0,87,0.00,,,0.00,WUHU216DAVISVP2,2013-07-06 04:33:00,
2013-07-06 00:36:00,71.6,67.5,29.28,South,170,5.0,8.0,87,0.00,,,0.00,WUHU216DAVISVP2,2013-07-06 04:36:00,
2013-07-06 00:37:00,71.6,67.5,29.28,South,172,2.0,8.0,87,0.00,,,0.00,WUHU216DAVISVP2,2013-07-06 04:37:00,
2013-07-06 00:38:00,71.6,67.5,29.28,South,172,0.0,8.0,87,0.00,,,0.00,WUHU216DAVISVP2,2013-07-06 04:38:00,
2013-07-06 00:41:00,71.5,67.4,29.29,SSW,208,1.0,8.0,87,0.00,,,0.00,WUHU216DAVISVP2,2013-07-06 04:41:00,
2013-07-06 00:42:00,71.5,67.4,29.29,SSW,201,0.0,8.0,87,0.00,,,0.00,WUHU216DAVISVP2,2013-07-06 04:42:00,
2013-07-06 00:43:00,71.5,67.4,29.29,South,190,0.0,6.0,87,0.00,,,0.00,WUHU216DAVISVP2,2013-07-06 04:43:00,
2013-07-06 00:47:00,71.4,67.3,29.28,SSW,210,2.0,6.0,87,0.00,,,0.00,WUHU216DAVISVP2,2013-07-06 04:47:00,
2013-07-06 00:48:00,71.4,67.3,29.28,SSW,211,2.0,6.0,87,0.00,,,0.00,WUHU216DAVISVP2,2013-07-06 04:48:00,
2013-07-06 00:52:00,71.4,67.7,29.28,SW,215,0.0,6.0,88,0.00,,,0.00,WUHU216DAVISVP2,2013-07-06 04:52:00,
2013-07-06 00:53:00,71.4,67.7,29.28,SW,214,1.0,6.0,88,0.00,,,0.00,WUHU216DAVISVP2,2013-07-06 04:53:00,
2013-07-06 00:54:00,71.3,67.6,29.28,SW,214,0.0,6.0,88,0.00,,,0.00,WUHU216DAVISVP2,2013-07-06 04:54:00,
2013-07-06 00:57:00,71.3,67.6,29.28,SW,220,2.0,5.0,88,0.00,,,0.00,WUHU216DAVISVP2,2013-07-06 04:57:00,
2013-07-06 00:58:00,71.3,67.6,29.28,SW,224,1.0,5.0,88,0.00,,,0.00,WUHU216DAVISVP2,2013-07-06 04:58:00,
2013-07-06 00:59:00,71.3,67.6,29.28,SW,224,0.0,5.0,88,0.00,,,0.00,WUHU216DAVISVP2,2013-07-06 04:59:00,
2013-07-06 01:02:00,71.3,67.6,29.28,SW,224,1.0,5.0,88,0.00,,,0.00,WUHU216DAVISVP2,2013-07-06 05:02:00,
2013-07-06 01:03:00,71.4,67.7,29.28,SW,224,1.0,5.0,88,0.00,,,0.00,WUHU216DAVISVP2,2013-07-06 05:03:00,
2013-07-06 01:04:00,71.3,67.6,29.28,SW,224,0.0,5.0,88,0.00,,,0.00,WUHU216DAVISVP2,2013-07-06 05:04:00,
2013-07-06 01:07:00,71.3,67.6,29.28,SW,222,0.0,5.0,88,0.00,,,0.00,WUHU216DAVISVP2,2013-07-06 05:07:00,
2013-07-06 01:08:00,71.3,67.6,29.28,SW,223,0.0,5.0,88,0.00,,,0.00,WUHU216DAVISVP2,2013-07-06 05:08:00,
2013-07-06 01:09:00,71.3,67.6,29.28,SW,222,1.0,5.0,88,0.00,,,0.00,WUHU216DAVISVP2,2013-07-06 05:09:00,
2013-07-06 01:12:00,71.3,67.6,29.28,SW,222,0.0,5.0,88,0.00,,,0.00,WUHU216DAVISVP2,2013-07-06 05:12:00,
2013-07-06 01:13:00,71.3,67.6,29.28,SW,222,2.0,5.0,88,0.00,,,0.00,WUHU216DAVISVP2,2013-07-06 05:13:00,
2013-07-06 01:14:00,71.3,67.6,29.28,SW,222,1.0,5.0,88,0.00,,,0.00,WUHU216DAVISVP2,2013-07-06 05:14:00,
2013-07-06 01:18:00,71.3,67.6,29.28,SW,223,0.0,5.0,88,0.00,,,0.00,WUHU216DAVISVP2,2013-07-06 05:18:00,
2013-07-06 01:19:00,71.3,67.6,29.28,SW,222,0.0,5.0,88,0.00,,,0.00,WUHU216DAVISVP2,2013-07-06 05:19:00,
2013-07-06 01:20:00,71.2,67.5,29.28,SW,222,0.0,5.0,88,0.00,,,0.00,WUHU216DAVISVP2,2013-07-06 05:20:00,
2013-07-06 01:23:00,71.2,67.5,29.28,SW,222,0.0,5.0,88,0.00,,,0.00,WUHU216DAVISVP2,2013-07-06 05:23:00,
2013-07-06 01:24:00,71.2,67.5,29.28,SW,222,3.0,5.0,88,0.00,,,0.00,WUHU216DAVISVP2,2013-07-06 05:24:00,
2013-07-06 01:25:00,71.2,67.5,29.28,SW,222,0.0,5.0,88,0.00,,,0.00,WUHU216DAVISVP2,2013-07-06 05:25:00,
2013-07-06 01:28:00,71.2,67.8,29.28,SW,223,1.0,5.0,89,0.00,,,0.00,WUHU216DAVISVP2,2013-07-06 05:28:00,
2013-07-06 01:29:00,71.1,67.7,29.28,SW,222,0.0,5.0,89,0.00,,,0.00,WUHU216DAVISVP2,2013-07-06 05:29:00,
2013-07-06 01:30:00,71.1,67.7,29.28,SW,222,0.0,5.0,89,0.00,,,0.00,WUHU216DAVISVP2,2013-07-06 05:30:00,
2013-07-06 01:34:00,71.0,67.6,29.29,SSW,197,0.0,4.0,89,0.00,,,0.00,WUHU216DAVISVP2,2013-07-06 05:34:00,
2013-07-06 01:35:00,71.0,67.6,29.29,SSW,197,0.0,4.0,89,0.00,,,0.00,WUHU216DAVISVP2,2013-07-06 05:35:00,
2013-07-06 01:36:00,71.0,67.6,29.29,SSW,197,0.0,4.0,89,0.00,,,0.00,WUHU216DAVISVP2,2013-07-06 05:36:00,
2013-07-06 01:39:00,71.0,67.6,29.29,SSW,197,1.0,4.0,89,0.00,,,0.00,WUHU216DAVISVP2,2013-07-06 05:39:00,
2013-07-06 01:40:00,71.0,67.6,29.29,SSW,197,0.0,4.0,89,0.00,,,0.00,WUHU216DAVISVP2,2013-07-06 05:40:00,
2013-07-06 01:41:00,70.9,67.5,29.29,SSW,197,0.0,4.0,89,0.00,,,0.00,WUHU216DAVISVP2,2013-07-06 05:41:00,
2013-07-06 01:44:00,70.9,67.5,29.29,SSW,197,0.0,4.0,89,0.00,,,0.00,WUHU216DAVISVP2,2013-07-06 05:44:00,
2013-07-06 01:45:00,70.9,67.5,29.29,SSW,197,0.0,4.0,89,0.00,,,0.00,WUHU216DAVISVP2,2013-07-06 05:45:00,
2013-07-06 01:46:00,70.9,67.5,29.28,SSW,197,1.0,4.0,89,0.00,,,0.00,WUHU216DAVISVP2,2013-07-06 05:46:00,
2013-07-06 01:49:00,70.8,67.4,29.28,SSW,197,0.0,4.0,89,0.00,,,0.00,WUHU216DAVISVP2,2013-07-06 05:49:00,
2013-07-06 01:50:00,70.8,67.4,29.28,SSW,197,0.0,4.0,89,0.00,,,0.00,WUHU216DAVISVP2,2013-07-06 05:50:00,
2013-07-06 01:51:00,70.8,67.4,29.28,SSW,197,0.0,4.0,89,0.00,,,0.00,WUHU216DAVISVP2,2013-07-06 05:51:00,
2013-07-06 01:52:00,70.8,67.4,29.28,SSW,197,0.0,4.0,89,0.00,,,0.00,WUHU216DAVISVP2,2013-07-06 05:52:00,
2013-07-06 01:54:00,70.8,67.4,29.28,SSW,197,1.0,2.0,89,0.00,,,0.00,WUHU216DAVISVP2,2013-07-06 05:54:00,
2013-07-06 01:55:00,70.8,67.4,29.29,SSW,197,0.0,2.0,89,0.00,,,0.00,WUHU216DAVISVP2,2013-07-06 05:55:00,
2013-07-06 01:57:00,70.8,67.4,29.29,SSW,197,0.0,3.0,89,0.00,,,0.00,WUHU216DAVISVP2,2013-07-06 05:57:00,
2013-07-06 01:59:00,70.7,67.3,29.28,SSW,197,0.0,4.0,89,0.00,,,0.00,WUHU216DAVISVP2,2013-07-06 05:59:00,
2013-07-06 02:00:00,70.8,67.4,29.28,SSW,197,2.0,4.0,89,0.00,,,0.00,WUHU216DAVISVP2,2013-07-06 06:00:00,
2013-07-06 02:02:00,70.7,67.6,29.28,SSW,197,1.0,5.0,90,0.00,,,0.00,WUHU216DAVISVP2,2013-07-06 06:02:00,
2013-07-06 02:04:00,70.7,67.6,29.28,SSW,197,1.0,5.0,90,0.00,,,0.00,WUHU216DAVISVP2,2013-07-06 06:04:00,
2013-07-06 02:05:00,70.7,67.6,29.28,SSW,197,0.0,5.0,90,0.00,,,0.00,WUHU216DAVISVP2,2013-07-06 06:05:00,
2013-07-06 02:06:00,70.7,67.6,29.28,SSW,197,0.0,5.0,90,0.00,,,0.00,WUHU216DAVISVP2,2013-07-06 06:06:00,
2013-07-06 02:07:00,70.7,67.6,29.28,SSW,197,0.0,5.0,90,0.00,,,0.00,WUHU216DAVISVP2,2013-07-06 06:07:00,
2013-07-06 02:08:00,70.7,67.6,29.28,SSW,197,0.0,5.0,90,0.00,,,0.00,WUHU216DAVISVP2,2013-07-06 06:08:00,
2013-07-06 02:09:00,70.6,67.5,29.28,SSW,197,2.0,5.0,90,0.00,,,0.00,WUHU216DAVISVP2,2013-07-06 06:09:00,
2013-07-06 02:10:00,70.6,67.5,29.28,SSW,197,0.0,5.0,90,0.00,,,0.00,WUHU216DAVISVP2,2013-07-06 06:10:00,
2013-07-06 02:11:00,70.6,67.5,29.28,SSW,197,0.0,5.0,90,0.00,,,0.00,WUHU216DAVISVP2,2013-07-06 06:11:00,
2013-07-06 02:12:00,70.6,67.5,29.28,SSW,197,2.0,5.0,90,0.00,,,0.00,WUHU216DAVISVP2,2013-07-06 06:12:00,
2013-07-06 02:13:00,70.6,67.5,29.28,SSW,197,0.0,5.0,90,0.00,,,0.00,WUHU216DAVISVP2,2013-07-06 06:13:00,
2013-07-06 02:14:00,70.6,67.5,29.28,SSW,197,0.0,5.0,90,0.00,,,0.00,WUHU216DAVISVP2,2013-07-06 06:14:00,
2013-07-06 02:16:00,70.6,67.5,29.28,SSW,197,0.0,5.0,90,0.00,,,0.00,WUHU216DAVISVP2,2013-07-06 06:16:00,
2013-07-06 02:17:00,70.5,67.4,29.28,SSW,197,0.0,5.0,90,0.00,,,0.00,WUHU216DAVISVP2,2013-07-06 06:17:00,
2013-07-06 02:18:00,70.5,67.4,29.28,SSW,197,0.0,5.0,90,0.00,,,0.00,WUHU216DAVISVP2,2013-07-06 06:18:00,
2013-07-06 02:20:00,70.5,67.4,29.28,SSW,197,0.0,5.0,90,0.00,,,0.00,WUHU216DAVISVP2,2013-07-06 06:20:00,
2013-07-06 02:21:00,70.5,67.4,29.28,SSW,197,0.0,4.0,90,0.00,,,0.00,WUHU216DAVISVP2,2013-07-06 06:21:00,
2013-07-06 02:22:00,70.5,67.4,29.28,SSW,197,0.0,4.0,90,0.00,,,0.00,WUHU216DAVISVP2,2013-07-06 06:22:00,
2013-07-06 02:23:00,70.5,67.4,29.28,SSW,197,0.0,4.0,90,0.00,,,0.00,WUHU216DAVISVP2,2013-07-06 06:23:00,
2013-07-06 02:25:00,70.5,67.4,29.28,SSW,197,0.0,4.0,90,0.00,,,0.00,WUHU216DAVISVP2,2013-07-06 06:25:00,
2013-07-06 02:26:00,70.5,67.4,29.28,SSW,197,0.0,4.0,90,0.00,,,0.00,WUHU216DAVISVP2,2013-07-06 06:26:00,
2013-07-06 02:27:00,70.4,67.3,29.28,SSW,197,0.0,4.0,90,0.00,,,0.00,WUHU216DAVISVP2,2013-07-06 06:27:00,
2013-07-06 02:28:00,70.4,67.3,29.28,SSW,197,1.0,4.0,90,0.00,,,0.00,WUHU216DAVISVP2,2013-07-06 06:28:00,
2013-07-06 02:29:00,70.4,67.3,29.28,SSW,197,2.0,3.0,90,0.00,,,0.00,WUHU216DAVISVP2,2013-07-06 06:29:00,
2013-07-06 02:30:00,70.4,67.3,29.28,SSW,197,2.0,4.0,90,0.00,,,0.00,WUHU216DAVISVP2,2013-07-06 06:30:00,
2013-07-06 02:31:00,70.4,67.3,29.27,SSW,197,2.0,4.0,90,0.00,,,0.00,WUHU216DAVISVP2,2013-07-06 06:31:00,
2013-07-06 02:32:00,70.4,67.3,29.27,SSW,197,2.0,4.0,90,0.00,,,0.00,WUHU216DAVISVP2,2013-07-06 06:32:00,
2013-07-06 02:33:00,70.4,67.3,29.28,SSW,197,0.0,4.0,90,0.00,,,0.00,WUHU216DAVISVP2,2013-07-06 06:33:00,
2013-07-06 02:34:00,70.4,67.3,29.28,SSW,197,2.0,4.0,90,0.00,,,0.00,WUHU216DAVISVP2,2013-07-06 06:34:00,
2013-07-06 02:35:00,70.4,67.3,29.28,SSW,197,2.0,4.0,90,0.00,,,0.00,WUHU216DAVISVP2,2013-07-06 06:35:00,
2013-07-06 02:36:00,70.4,67.3,29.27,SSW,197,1.0,4.0,90,0.00,,,0.00,WUHU216DAVISVP2,2013-07-06 06:36:00,
2013-07-06 02:37:00,70.3,67.2,29.28,SSW,197,1.0,4.0,90,0.00,,,0.00,WUHU216DAVISVP2,2013-07-06 06:37:00,
2013-07-06 02:38:00,70.3,67.2,29.28,SSW,197,1.0,4.0,90,0.00,,,0.00,WUHU216DAVISVP2,2013-07-06 06:38:00,
2013-07-06 02:39:00,70.3,67.2,29.28,SSW,197,1.0,4.0,90,0.00,,,0.00,WUHU216DAVISVP2,2013-07-06 06:39:00,
2013-07-06 02:40:00,70.3,67.2,29.28,SSW,197,1.0,4.0,90,0.00,,,0.00,WUHU216DAVISVP2,2013-07-06 06:40:00,
2013-07-06 02:41:00,70.3,67.2,29.28,SSW,197,1.0,4.0,90,0.00,,,0.00,WUHU216DAVISVP2,2013-07-06 06:41:00,
2013-07-06 02:43:00,70.2,67.4,29.28,SSW,197,0.0,4.0,91,0.00,,,0.00,WUHU216DAVISVP2,2013-07-06 06:43:00,
2013-07-06 02:45:00,70.2,67.4,29.28,SSW,197,0.0,4.0,91,0.00,,,0.00,WUHU216DAVISVP2,2013-07-06 06:45:00,
2013-07-06 02:46:00,70.2,67.4,29.27,SSW,197,0.0,4.0,91,0.00,,,0.00,WUHU216DAVISVP2,2013-07-06 06:46:00,
2013-07-06 02:48:00,70.1,67.3,29.27,SSW,197,0.0,4.0,91,0.00,,,0.00,WUHU216DAVISVP2,2013-07-06 06:48:00,
2013-07-06 02:49:00,70.1,67.3,29.27,SSW,197,0.0,4.0,91,0.00,,,0.00,WUHU216DAVISVP2,2013-07-06 06:49:00,
2013-07-06 02:50:00,70.1,67.3,29.27,SSW,197,1.0,4.0,91,0.00,,,0.00,WUHU216DAVISVP2,2013-07-06 06:50:00,
2013-07-06 02:51:00,70.1,67.3,29.27,SSW,197,0.0,4.0,91,0.00,,,0.00,WUHU216DAVISVP2,2013-07-06 06:51:00,
2013-07-06 02:53:00,70.1,67.3,29.27,SSW,197,1.0,4.0,91,0.00,,,0.00,WUHU216DAVISVP2,2013-07-06 06:53:00,
2013-07-06 02:54:00,70.1,67.3,29.27,SSW,197,3.0,4.0,91,0.00,,,0.00,WUHU216DAVISVP2,2013-07-06 06:54:00,
2013-07-06 02:55:00,70.0,67.2,29.28,SSW,197,2.0,4.0,91,0.00,,,0.00,WUHU216DAVISVP2,2013-07-06 06:55:00,
2013-07-06 02:56:00,70.0,67.2,29.27,SSW,197,1.0,4.0,91,0.00,,,0.00,WUHU216DAVISVP2,2013-07-06 06:56:00,
2013-07-06 02:58:00,70.0,67.2,29.28,SSW,197,2.0,4.0,91,0.00,,,0.00,WUHU216DAVISVP2,2013-07-06 06:58:00,
2013-07-06 02:59:00,70.0,67.2,29.28,SSW,197,0.0,4.0,91,0.00,,,0.00,WUHU216DAVISVP2,2013-07-06 06:59:00,
2013-07-06 03:00:00,70.0,67.5,29.28,SSW,197,1.0,4.0,92,0.00,,,0.00,WUHU216DAVISVP2,2013-07-06 07:00:00,
2013-07-06 03:01:00,70.0,67.5,29.28,SSW,197,1.0,4.0,92,0.00,,,0.00,WUHU216DAVISVP2,2013-07-06 07:01:00,
2013-07-06 03:03:00,70.0,67.5,29.27,SSW,197,2.0,4.0,92,0.00,,,0.00,WUHU216DAVISVP2,2013-07-06 07:03:00,
2013-07-06 03:05:00,69.9,67.4,29.27,SSW,197,0.0,4.0,92,0.00,,,0.00,WUHU216DAVISVP2,2013-07-06 07:05:00,
2013-07-06 03:06:00,69.9,67.4,29.27,SSW,197,1.0,4.0,92,0.00,,,0.00,WUHU216DAVISVP2,2013-07-06 07:06:00,
2013-07-06 03:07:00,69.9,67.4,29.27,SSW,197,2.0,4.0,92,0.00,,,0.00,WUHU216DAVISVP2,2013-07-06 07:07:00,
2013-07-06 03:09:00,69.9,67.4,29.27,SSW,197,0.0,4.0,92,0.00,,,0.00,WUHU216DAVISVP2,2013-07-06 07:09:00,
2013-07-06 03:10:00,70.0,67.5,29.27,SSW,197,1.0,4.0,92,0.00,,,0.00,WUHU216DAVISVP2,2013-07-06 07:10:00,
2013-07-06 03:11:00,69.9,67.4,29.27,SSW,197,0.0,4.0,92,0.00,,,0.00,WUHU216DAVISVP2,2013-07-06 07:11:00,
2013-07-06 03:12:00,69.9,67.4,29.27,SSW,197,1.0,4.0,92,0.00,,,0.00,WUHU216DAVISVP2,2013-07-06 07:12:00,
2013-07-06 03:14:00,69.9,67.4,29.27,SSW,197,1.0,4.0,92,0.00,,,0.00,WUHU216DAVISVP2,2013-07-06 07:14:00,
2013-07-06 03:15:00,69.9,67.4,29.27,SSW,197,1.0,4.0,92,0.00,,,0.00,WUHU216DAVISVP2,2013-07-06 07:15:00,
2013-07-06 03:17:00,69.9,67.4,29.27,SSW,197,2.0,4.0,92,0.00,,,0.00,WUHU216DAVISVP2,2013-07-06 07:17:00,
2013-07-06 03:19:00,69.9,67.4,29.27,SSW,197,0.0,4.0,92,0.00,,,0.00,WUHU216DAVISVP2,2013-07-06 07:19:00,
2013-07-06 03:21:00,69.9,67.4,29.27,SSW,197,0.0,4.0,92,0.00,,,0.00,WUHU216DAVISVP2,2013-07-06 07:21:00,
2013-07-06 03:22:00,69.9,67.4,29.27,SSW,197,0.0,4.0,92,0.00,,,0.00,WUHU216DAVISVP2,2013-07-06 07:22:00,
2013-07-06 03:24:00,69.8,67.3,29.27,SSW,197,0.0,4.0,92,0.00,,,0.00,WUHU216DAVISVP2,2013-07-06 07:24:00,
2013-07-06 03:26:00,69.8,67.3,29.26,SSW,197,0.0,4.0,92,0.00,,,0.00,WUHU216DAVISVP2,2013-07-06 07:26:00,
2013-07-06 03:27:00,69.8,67.3,29.26,SSW,197,0.0,4.0,92,0.00,,,0.00,WUHU216DAVISVP2,2013-07-06 07:27:00,
2013-07-06 03:29:00,69.9,67.4,29.27,SSE,166,2.0,5.0,92,0.00,,,0.00,WUHU216DAVISVP2,2013-07-06 07:29:00,
2013-07-06 03:31:00,69.9,67.4,29.26,SSE,166,0.0,5.0,92,0.00,,,0.00,WUHU216DAVISVP2,2013-07-06 07:31:00,
2013-07-06 03:32:00,69.9,67.4,29.27,SSE,166,0.0,5.0,92,0.00,,,0.00,WUHU216DAVISVP2,2013-07-06 07:32:00,
2013-07-06 03:35:00,69.9,67.4,29.27,SSE,166,1.0,5.0,92,0.00,,,0.00,WUHU216DAVISVP2,2013-07-06 07:35:00,
2013-07-06 03:36:00,69.9,67.4,29.27,SSE,166,2.0,5.0,92,0.00,,,0.00,WUHU216DAVISVP2,2013-07-06 07:36:00,
2013-07-06 03:38:00,69.8,67.3,29.27,SSE,166,0.0,5.0,92,0.00,,,0.00,WUHU216DAVISVP2,2013-07-06 07:38:00,
2013-07-06 03:40:00,69.9,67.4,29.27,SSE,165,1.0,5.0,92,0.00,,,0.00,WUHU216DAVISVP2,2013-07-06 07:40:00,
2013-07-06 03:41:00,69.9,67.4,29.27,SSE,165,1.0,5.0,92,0.00,,,0.00,WUHU216DAVISVP2,2013-07-06 07:41:00,
2013-07-06 03:43:00,69.9,67.4,29.27,SSE,165,0.0,5.0,92,0.00,,,0.00,WUHU216DAVISVP2,2013-07-06 07:43:00,
2013-07-06 03:45:00,69.8,67.3,29.27,SSE,165,0.0,5.0,92,0.00,,,0.00,WUHU216DAVISVP2,2013-07-06 07:45:00,
2013-07-06 03:46:00,69.8,67.3,29.27,SSE,165,0.0,5.0,92,0.00,,,0.00,WUHU216DAVISVP2,2013-07-06 07:46:00,
2013-07-06 03:48:00,69.8,67.3,29.27,SSE,165,0.0,5.0,92,0.00,,,0.00,WUHU216DAVISVP2,2013-07-06 07:48:00,
2013-07-06 03:50:00,69.8,67.3,29.27,SSE,166,0.0,5.0,92,0.00,,,0.00,WUHU216DAVISVP2,2013-07-06 07:50:00,
2013-07-06 03:51:00,69.8,67.3,29.27,SSE,165,0.0,5.0,92,0.00,,,0.00,WUHU216DAVISVP2,2013-07-06 07:51:00,
2013-07-06 03:52:00,69.8,67.3,29.27,SSE,165,0.0,5.0,92,0.00,,,0.00,WUHU216DAVISVP2,2013-07-06 07:52:00,
2013-07-06 03:53:00,69.8,67.3,29.27,SSE,165,0.0,4.0,92,0.00,,,0.00,WUHU216DAVISVP2,2013-07-06 07:53:00,
2013-07-06 03:55:00,69.7,67.2,29.27,SSE,165,0.0,4.0,92,0.00,,,0.00,WUHU216DAVISVP2,2013-07-06 07:55:00,
2013-07-06 03:57:00,69.7,67.2,29.27,SSE,165,0.0,4.0,92,0.00,,,0.00,WUHU216DAVISVP2,2013-07-06 07:57:00,
2013-07-06 03:58:00,69.7,67.2,29.27,SSE,165,0.0,4.0,92,0.00,,,0.00,WUHU216DAVISVP2,2013-07-06 07:58:00,
2013-07-06 04:00:00,69.7,67.2,29.27,SSE,165,2.0,4.0,92,0.00,,,0.00,WUHU216DAVISVP2,2013-07-06 08:00:00,
2013-07-06 04:02:00,69.7,67.6,29.27,SSE,165,1.0,5.0,93,0.00,,,0.00,WUHU216DAVISVP2,2013-07-06 08:02:00,
2013-07-06 04:03:00,69.6,67.5,29.27,SSE,165,0.0,5.0,93,0.00,,,0.00,WUHU216DAVISVP2,2013-07-06 08:03:00,
2013-07-06 04:05:00,69.6,67.5,29.27,SSE,165,1.0,5.0,93,0.00,,,0.00,WUHU216DAVISVP2,2013-07-06 08:05:00,
2013-07-06 04:07:00,69.6,67.5,29.26,SSE,165,0.0,5.0,93,0.00,,,0.00,WUHU216DAVISVP2,2013-07-06 08:07:00,
2013-07-06 04:08:00,69.6,67.5,29.26,SSE,166,0.0,5.0,93,0.00,,,0.00,WUHU216DAVISVP2,2013-07-06 08:08:00,
2013-07-06 04:10:00,69.6,67.5,29.26,SSE,165,0.0,5.0,93,0.00,,,0.00,WUHU216DAVISVP2,2013-07-06 08:10:00,
2013-07-06 04:12:00,69.6,67.5,29.27,SSE,165,0.0,5.0,93,0.00,,,0.00,WUHU216DAVISVP2,2013-07-06 08:12:00,
2013-07-06 04:13:00,69.6,67.5,29.27,SSE,165,0.0,5.0,93,0.00,,,0.00,WUHU216DAVISVP2,2013-07-06 08:13:00,
2013-07-06 04:15:00,69.6,67.5,29.27,SSE,165,2.0,5.0,93,0.00,,,0.00,WUHU216DAVISVP2,2013-07-06 08:15:00,
2013-07-06 04:17:00,69.7,67.6,29.27,SSE,165,1.0,5.0,93,0.00,,,0.00,WUHU216DAVISVP2,2013-07-06 08:17:00,
2013-07-06 04:18:00,69.7,67.6,29.27,SSE,165,1.0,5.0,93,0.00,,,0.00,WUHU216DAVISVP2,2013-07-06 08:18:00,
2013-07-06 04:19:00,69.7,67.6,29.27,SSE,165,1.0,5.0,93,0.00,,,0.00,WUHU216DAVISVP2,2013-07-06 08:19:00,
2013-07-06 04:20:00,69.7,67.6,29.27,SSE,165,2.0,5.0,93,0.00,,,0.00,WUHU216DAVISVP2,2013-07-06 08:20:00,
2013-07-06 04:22:00,69.7,67.6,29.27,SSE,165,0.0,5.0,93,0.00,,,0.00,WUHU216DAVISVP2,2013-07-06 08:22:00,
2013-07-06 04:23:00,69.7,67.6,29.27,SSE,165,0.0,5.0,93,0.00,,,0.00,WUHU216DAVISVP2,2013-07-06 08:23:00,
2013-07-06 04:24:00,69.7,67.6,29.27,SSE,165,0.0,5.0,93,0.00,,,0.00,WUHU216DAVISVP2,2013-07-06 08:24:00,
2013-07-06 04:26:00,69.7,67.6,29.27,SSE,165,0.0,5.0,93,0.00,,,0.00,WUHU216DAVISVP2,2013-07-06 08:26:00,
2013-07-06 04:27:00,69.7,67.6,29.27,SSE,165,0.0,5.0,93,0.00,,,0.00,WUHU216DAVISVP2,2013-07-06 08:27:00,
2013-07-06 04:28:00,69.7,67.6,29.27,SSE,165,0.0,5.0,93,0.00,,,0.00,WUHU216DAVISVP2,2013-07-06 08:28:00,
2013-07-06 04:29:00,69.7,67.6,29.26,SSE,165,0.0,5.0,93,0.00,,,0.00,WUHU216DAVISVP2,2013-07-06 08:29:00,
2013-07-06 04:31:00,69.6,67.5,29.26,SSE,165,0.0,5.0,93,0.00,,,0.00,WUHU216DAVISVP2,2013-07-06 08:31:00,
2013-07-06 04:33:00,69.6,67.5,29.26,SSE,165,0.0,5.0,93,0.00,,,0.00,WUHU216DAVISVP2,2013-07-06 08:33:00,
2013-07-06 04:34:00,69.6,67.5,29.26,SSE,165,0.0,5.0,93,0.00,,,0.00,WUHU216DAVISVP2,2013-07-06 08:34:00,
2013-07-06 04:36:00,69.5,67.4,29.26,SE,133,3.0,5.0,93,0.00,,,0.00,WUHU216DAVISVP2,2013-07-06 08:36:00,
2013-07-06 04:38:00,69.5,67.4,29.27,SE,133,2.0,5.0,93,0.00,,,0.00,WUHU216DAVISVP2,2013-07-06 08:38:00,
2013-07-06 04:39:00,69.5,67.4,29.27,SE,133,1.0,4.0,93,0.00,,,0.00,WUHU216DAVISVP2,2013-07-06 08:39:00,
2013-07-06 04:41:00,69.6,67.5,29.26,SSE,164,4.0,5.0,93,0.00,,,0.00,WUHU216DAVISVP2,2013-07-06 08:41:00,
2013-07-06 04:43:00,69.6,67.5,29.26,SE,125,2.0,5.0,93,0.00,,,0.00,WUHU216DAVISVP2,2013-07-06 08:43:00,
2013-07-06 04:44:00,69.6,67.5,29.26,SE,125,2.0,5.0,93,0.00,,,0.00,WUHU216DAVISVP2,2013-07-06 08:44:00,
2013-07-06 04:45:00,69.6,67.5,29.26,SE,125,1.0,5.0,93,0.00,,,0.00,WUHU216DAVISVP2,2013-07-06 08:45:00,
2013-07-06 04:46:00,69.6,67.5,29.26,SE,125,0.0,5.0,93,0.00,,,0.00,WUHU216DAVISVP2,2013-07-06 08:46:00,
2013-07-06 04:49:00,69.5,67.4,29.25,SE,125,0.0,5.0,93,0.00,,,0.00,WUHU216DAVISVP2,2013-07-06 08:49:00,
2013-07-06 04:50:00,69.5,67.4,29.26,SE,125,0.0,5.0,93,0.00,,,0.00,WUHU216DAVISVP2,2013-07-06 08:50:00,
2013-07-06 04:51:00,69.5,67.4,29.25,SE,125,0.0,5.0,93,0.00,,,0.00,WUHU216DAVISVP2,2013-07-06 08:51:00,
2013-07-06 04:54:00,69.5,67.4,29.26,SE,125,0.0,5.0,93,0.00,,,0.00,WUHU216DAVISVP2,2013-07-06 08:54:00,
2013-07-06 04:55:00,69.5,67.4,29.25,SE,125,0.0,5.0,93,0.00,,,0.00,WUHU216DAVISVP2,2013-07-06 08:55:00,
2013-07-06 04:56:00,69.5,67.4,29.26,SE,125,0.0,5.0,93,0.00,,,0.00,WUHU216DAVISVP2,2013-07-06 08:56:00,
2013-07-06 04:59:00,69.5,67.7,29.26,SE,125,0.0,5.0,94,0.00,,,0.00,WUHU216DAVISVP2,2013-07-06 08:59:00,
2013-07-06 05:00:00,69.5,67.7,29.26,SE,125,1.0,4.0,94,0.00,,,0.00,WUHU216DAVISVP2,2013-07-06 09:00:00,
2013-07-06 05:01:00,69.5,67.7,29.26,SE,125,1.0,4.0,94,0.00,,,0.00,WUHU216DAVISVP2,2013-07-06 09:01:00,
2013-07-06 05:04:00,69.5,67.7,29.25,SE,125,0.0,1.0,94,0.00,,,0.00,WUHU216DAVISVP2,2013-07-06 09:04:00,
2013-07-06 05:05:00,69.5,67.7,29.25,SE,125,0.0,1.0,94,0.00,,,0.00,WUHU216DAVISVP2,2013-07-06 09:05:00,
2013-07-06 05:07:00,69.5,67.7,29.25,SE,125,0.0,1.0,94,0.00,,,0.00,WUHU216DAVISVP2,2013-07-06 09:07:00,
2013-07-06 05:09:00,69.4,67.6,29.25,SE,125,0.0,4.0,94,0.00,,,0.00,WUHU216DAVISVP2,2013-07-06 09:09:00,
2013-07-06 05:10:00,69.4,67.6,29.25,SE,125,0.0,4.0,94,0.00,,,0.00,WUHU216DAVISVP2,2013-07-06 09:10:00,
2013-07-06 05:12:00,69.4,67.6,29.25,SE,125,0.0,4.0,94,0.00,,,0.00,WUHU216DAVISVP2,2013-07-06 09:12:00,
2013-07-06 05:14:00,69.4,67.6,29.26,SE,125,0.0,4.0,94,0.00,,,0.00,WUHU216DAVISVP2,2013-07-06 09:14:00,
2013-07-06 05:15:00,69.4,67.6,29.26,SE,125,0.0,4.0,94,0.00,,,0.00,WUHU216DAVISVP2,2013-07-06 09:15:00,
2013-07-06 05:17:00,69.4,67.6,29.26,SE,125,0.0,4.0,94,0.00,,,0.00,WUHU216DAVISVP2,2013-07-06 09:17:00,
2013-07-06 05:19:00,69.4,67.6,29.26,SE,125,0.0,4.0,94,0.00,,,0.00,WUHU216DAVISVP2,2013-07-06 09:19:00,
2013-07-06 05:20:00,69.5,67.7,29.26,SE,125,1.0,4.0,94,0.00,,,0.00,WUHU216DAVISVP2,2013-07-06 09:20:00,
2013-07-06 05:21:00,69.4,67.6,29.25,SE,125,0.0,4.0,94,0.00,,,0.00,WUHU216DAVISVP2,2013-07-06 09:21:00,
2013-07-06 05:22:00,69.4,67.6,29.25,SE,125,0.0,4.0,94,0.00,,,0.00,WUHU216DAVISVP2,2013-07-06 09:22:00,
2013-07-06 05:24:00,69.4,67.6,29.25,SE,125,1.0,4.0,94,0.00,,,0.00,WUHU216DAVISVP2,2013-07-06 09:24:00,
2013-07-06 05:25:00,69.4,67.6,29.25,SE,125,1.0,4.0,94,0.00,,,0.00,WUHU216DAVISVP2,2013-07-06 09:25:00,
2013-07-06 05:26:00,69.4,67.6,29.25,SE,125,1.0,4.0,94,0.00,,,0.00,WUHU216DAVISVP2,2013-07-06 09:26:00,
2013-07-06 05:27:00,69.4,67.6,29.25,SE,125,0.0,2.0,94,0.00,,,0.00,WUHU216DAVISVP2,2013-07-06 09:27:00,
2013-07-06 05:30:00,69.4,67.6,29.25,SE,125,0.0,2.0,94,0.00,,,0.00,WUHU216DAVISVP2,2013-07-06 09:30:00,
2013-07-06 05:31:00,69.3,67.5,29.25,SE,125,0.0,2.0,94,0.00,,,0.00,WUHU216DAVISVP2,2013-07-06 09:31:00,
2013-07-06 05:32:00,69.3,67.5,29.26,SE,125,0.0,2.0,94,0.00,,,0.00,WUHU216DAVISVP2,2013-07-06 09:32:00,
2013-07-06 05:34:00,69.3,67.5,29.26,SE,125,0.0,2.0,94,0.00,,,0.00,WUHU216DAVISVP2,2013-07-06 09:34:00,
2013-07-06 05:35:00,69.3,67.5,29.26,SE,125,0.0,2.0,94,0.00,,,0.00,WUHU216DAVISVP2,2013-07-06 09:35:00,
2013-07-06 05:36:00,69.3,67.5,29.26,SE,125,1.0,2.0,94,0.00,,,0.00,WUHU216DAVISVP2,2013-07-06 09:36:00,
2013-07-06 05:38:00,69.3,67.5,29.26,SE,125,0.0,2.0,94,0.00,,,0.00,WUHU216DAVISVP2,2013-07-06 09:38:00,
2013-07-06 05:40:00,69.2,67.4,29.25,SE,125,0.0,2.0,94,0.00,,,0.00,WUHU216DAVISVP2,2013-07-06 09:40:00,
2013-07-06 05:41:00,69.2,67.4,29.26,SE,125,3.0,3.0,94,0.00,,,0.00,WUHU216DAVISVP2,2013-07-06 09:41:00,
2013-07-06 05:43:00,69.2,67.4,29.26,SE,125,2.0,5.0,94,0.00,,,0.00,WUHU216DAVISVP2,2013-07-06 09:43:00,
2013-07-06 05:45:00,69.2,67.4,29.26,SE,125,1.0,5.0,94,0.00,,,0.00,WUHU216DAVISVP2,2013-07-06 09:45:00,
2013-07-06 05:46:00,69.2,67.4,29.26,SE,125,1.0,5.0,94,0.00,,,0.00,WUHU216DAVISVP2,2013-07-06 09:46:00,
2013-07-06 05:48:00,69.1,67.3,29.26,SE,125,2.0,5.0,94,0.00,,,0.00,WUHU216DAVISVP2,2013-07-06 09:48:00,
2013-07-06 05:50:00,69.1,67.3,29.26,SE,125,2.0,5.0,94,0.00,,,0.00,WUHU216DAVISVP2,2013-07-06 09:50:00,
2013-07-06 05:51:00,69.1,67.3,29.26,SE,125,4.0,5.0,94,0.00,,,0.00,WUHU216DAVISVP2,2013-07-06 09:51:00,
2013-07-06 05:53:00,69.0,67.2,29.26,SE,125,2.0,5.0,94,0.00,,,0.00,WUHU216DAVISVP2,2013-07-06 09:53:00,
2013-07-06 05:55:00,69.0,67.2,29.26,SE,125,2.0,5.0,94,0.00,,,0.00,WUHU216DAVISVP2,2013-07-06 09:55:00,
2013-07-06 05:56:00,69.0,67.2,29.26,SE,125,2.0,5.0,94,0.00,,,0.00,WUHU216DAVISVP2,2013-07-06 09:56:00,
2013-07-06 05:57:00,68.9,67.1,29.26,SE,125,2.0,5.0,94,0.00,,,0.00,WUHU216DAVISVP2,2013-07-06 09:57:00,
2013-07-06 05:58:00,68.9,67.1,29.26,SE,125,1.0,5.0,94,0.00,,,0.00,WUHU216DAVISVP2,2013-07-06 09:58:00,
2013-07-06 06:00:00,69.0,67.2,29.26,SE,125,1.0,5.0,94,0.00,,,0.00,WUHU216DAVISVP2,2013-07-06 10:00:00,
2013-07-06 06:01:00,68.9,67.1,29.26,SE,125,0.0,5.0,94,0.00,,,0.00,WUHU216DAVISVP2,2013-07-06 10:01:00,
2013-07-06 06:02:00,68.9,67.1,29.26,SE,125,0.0,4.0,94,0.00,,,0.00,WUHU216DAVISVP2,2013-07-06 10:02:00,
2013-07-06 06:03:00,68.9,67.1,29.27,SE,125,0.0,4.0,94,0.00,,,0.00,WUHU216DAVISVP2,2013-07-06 10:03:00,
2013-07-06 06:06:00,68.9,67.1,29.27,SE,125,0.0,4.0,94,0.00,,,0.00,WUHU216DAVISVP2,2013-07-06 10:06:00,
2013-07-06 06:07:00,68.9,67.1,29.27,SE,125,0.0,4.0,94,0.00,,,0.00,WUHU216DAVISVP2,2013-07-06 10:07:00,
2013-07-06 06:08:00,68.9,67.1,29.27,SE,125,1.0,4.0,94,0.00,,,0.00,WUHU216DAVISVP2,2013-07-06 10:08:00,
2013-07-06 06:11:00,68.8,67.0,29.27,SE,125,2.0,4.0,94,0.00,,,0.00,WUHU216DAVISVP2,2013-07-06 10:11:00,
2013-07-06 06:12:00,68.9,67.1,29.27,SE,125,2.0,4.0,94,0.00,,,0.00,WUHU216DAVISVP2,2013-07-06 10:12:00,
2013-07-06 06:14:00,68.8,67.0,29.27,SE,125,1.0,4.0,94,0.00,,,0.00,WUHU216DAVISVP2,2013-07-06 10:14:00,
2013-07-06 06:16:00,68.9,67.4,29.27,SE,125,0.0,4.0,95,0.00,,,0.00,WUHU216DAVISVP2,2013-07-06 10:16:00,
2013-07-06 06:17:00,68.9,67.4,29.27,SE,125,0.0,4.0,95,0.00,,,0.00,WUHU216DAVISVP2,2013-07-06 10:17:00,
2013-07-06 06:19:00,68.8,67.3,29.27,SE,125,0.0,4.0,95,0.00,,,0.00,WUHU216DAVISVP2,2013-07-06 10:19:00,
2013-07-06 06:21:00,68.8,67.3,29.27,SE,125,0.0,4.0,95,0.00,,,0.00,WUHU216DAVISVP2,2013-07-06 10:21:00,
2013-07-06 06:22:00,68.8,67.3,29.27,SE,125,0.0,4.0,95,0.00,,,0.00,WUHU216DAVISVP2,2013-07-06 10:22:00,
2013-07-06 06:24:00,68.8,67.3,29.27,SE,125,0.0,4.0,95,0.00,,,0.00,WUHU216DAVISVP2,2013-07-06 10:24:00,
2013-07-06 06:26:00,68.8,67.3,29.27,SE,125,0.0,4.0,95,0.00,,,0.00,WUHU216DAVISVP2,2013-07-06 10:26:00,
2013-07-06 06:27:00,68.8,67.3,29.27,SE,125,0.0,4.0,95,0.00,,,0.00,WUHU216DAVISVP2,2013-07-06 10:27:00,
2013-07-06 06:28:00,68.8,67.3,29.27,SE,125,0.0,4.0,95,0.00,,,0.00,WUHU216DAVISVP2,2013-07-06 10:28:00,
2013-07-06 06:29:00,68.8,67.3,29.27,SE,125,1.0,4.0,95,0.00,,,0.00,WUHU216DAVISVP2,2013-07-06 10:29:00,
2013-07-06 06:32:00,68.7,66.9,29.27,SE,125,0.0,4.0,94,0.00,,,0.00,WUHU216DAVISVP2,2013-07-06 10:32:00,
2013-07-06 06:33:00,68.7,66.9,29.27,SE,125,2.0,4.0,94,0.00,,,0.00,WUHU216DAVISVP2,2013-07-06 10:33:00,
2013-07-06 06:34:00,68.7,66.9,29.27,SE,125,0.0,2.0,94,0.00,,,0.00,WUHU216DAVISVP2,2013-07-06 10:34:00,
2013-07-06 06:37:00,68.7,67.2,29.27,SE,125,0.0,2.0,95,0.00,,,0.00,WUHU216DAVISVP2,2013-07-06 10:37:00,
2013-07-06 06:39:00,68.6,67.1,29.27,SE,125,0.0,2.0,95,0.00,,,0.00,WUHU216DAVISVP2,2013-07-06 10:39:00,
2013-07-06 06:42:00,68.7,67.2,29.27,SE,125,0.0,2.0,95,0.00,,,0.00,WUHU216DAVISVP2,2013-07-06 10:42:00,
2013-07-06 06:43:00,68.7,67.2,29.27,SE,125,0.0,2.0,95,0.00,,,0.00,WUHU216DAVISVP2,2013-07-06 10:43:00,
2013-07-06 06:44:00,68.7,67.2,29.27,SE,125,0.0,2.0,95,0.00,,,0.00,WUHU216DAVISVP2,2013-07-06 10:44:00,
2013-07-06 06:47:00,68.8,67.3,29.27,SE,125,0.0,2.0,95,0.00,,,0.00,WUHU216DAVISVP2,2013-07-06 10:47:00,
2013-07-06 06:48:00,68.8,67.3,29.27,SE,125,0.0,2.0,95,0.00,,,0.00,WUHU216DAVISVP2,2013-07-06 10:48:00,
2013-07-06 06:49:00,68.9,67.4,29.27,SE,125,0.0,2.0,95,0.00,,,0.00,WUHU216DAVISVP2,2013-07-06 10:49:00,
2013-07-06 06:53:00,68.9,67.4,29.27,SE,125,0.0,1.0,95,0.00,,,0.00,WUHU216DAVISVP2,2013-07-06 10:53:00,
2013-07-06 06:54:00,69.0,67.5,29.27,SE,125,0.0,0.0,95,0.00,,,0.00,WUHU216DAVISVP2,2013-07-06 10:54:00,
2013-07-06 06:55:00,69.0,67.5,29.27,SE,125,0.0,0.0,95,0.00,,,0.00,WUHU216DAVISVP2,2013-07-06 10:55:00,
2013-07-06 06:58:00,69.0,67.5,29.27,SE,125,0.0,0.0,95,0.00,,,0.00,WUHU216DAVISVP2,2013-07-06 10:58:00,
2013-07-06 06:59:00,69.1,67.6,29.27,SE,125,0.0,0.0,95,0.00,,,0.00,WUHU216DAVISVP2,2013-07-06 10:59:00,
2013-07-06 07:00:00,69.1,67.6,29.27,SE,125,0.0,0.0,95,0.00,,,0.00,WUHU216DAVISVP2,2013-07-06 11:00:00,
2013-07-06 07:03:00,69.1,67.6,29.27,SE,125,0.0,0.0,95,0.00,,,0.00,WUHU216DAVISVP2,2013-07-06 11:03:00,
2013-07-06 07:04:00,69.2,67.7,29.27,SE,125,0.0,0.0,95,0.00,,,0.00,WUHU216DAVISVP2,2013-07-06 11:04:00,
2013-07-06 07:05:00,69.2,67.7,29.27,SE,125,0.0,0.0,95,0.00,,,0.00,WUHU216DAVISVP2,2013-07-06 11:05:00,
2013-07-06 07:08:00,69.2,67.7,29.27,SE,125,1.0,2.0,95,0.00,,,0.00,WUHU216DAVISVP2,2013-07-06 11:08:00,
2013-07-06 07:09:00,69.2,67.7,29.27,SE,125,0.0,4.0,95,0.00,,,0.00,WUHU216DAVISVP2,2013-07-06 11:09:00,
2013-07-06 07:10:00,69.2,67.7,29.27,SE,125,0.0,4.0,95,0.00,,,0.00,WUHU216DAVISVP2,2013-07-06 11:10:00,
2013-07-06 07:13:00,69.2,67.7,29.28,SE,125,0.0,4.0,95,0.00,,,0.00,WUHU216DAVISVP2,2013-07-06 11:13:00,
2013-07-06 07:14:00,69.2,67.7,29.28,SE,125,0.0,4.0,95,0.00,,,0.00,WUHU216DAVISVP2,2013-07-06 11:14:00,
2013-07-06 07:15:00,69.2,67.7,29.27,SE,125,0.0,4.0,95,0.00,,,0.00,WUHU216DAVISVP2,2013-07-06 11:15:00,
2013-07-06 07:18:00,69.2,67.7,29.27,SE,125,0.0,5.0,95,0.00,,,0.00,WUHU216DAVISVP2,2013-07-06 11:18:00,
2013-07-06 07:19:00,69.2,67.7,29.27,SE,125,0.0,5.0,95,0.00,,,0.00,WUHU216DAVISVP2,2013-07-06 11:19:00,
2013-07-06 07:20:00,69.2,67.7,29.27,SE,125,0.0,5.0,95,0.00,,,0.00,WUHU216DAVISVP2,2013-07-06 11:20:00,
2013-07-06 07:23:00,69.2,67.7,29.27,SE,125,0.0,5.0,95,0.00,,,0.00,WUHU216DAVISVP2,2013-07-06 11:23:00,
2013-07-06 07:24:00,69.2,67.7,29.27,SE,125,1.0,5.0,95,0.00,,,0.00,WUHU216DAVISVP2,2013-07-06 11:24:00,
2013-07-06 07:25:00,69.2,67.7,29.27,SE,125,1.0,5.0,95,0.00,,,0.00,WUHU216DAVISVP2,2013-07-06 11:25:00,
2013-07-06 07:28:00,69.2,67.7,29.27,SE,125,0.0,5.0,95,0.00,,,0.00,WUHU216DAVISVP2,2013-07-06 11:28:00,
2013-07-06 07:29:00,69.2,67.7,29.27,SE,125,1.0,5.0,95,0.00,,,0.00,WUHU216DAVISVP2,2013-07-06 11:29:00,
2013-07-06 07:30:00,69.2,67.7,29.28,SE,125,0.0,5.0,95,0.00,,,0.00,WUHU216DAVISVP2,2013-07-06 11:30:00,
2013-07-06 07:33:00,69.2,67.7,29.28,SE,125,2.0,5.0,95,0.00,,,0.00,WUHU216DAVISVP2,2013-07-06 11:33:00,
2013-07-06 07:34:00,69.2,67.7,29.28,SE,125,0.0,5.0,95,0.00,,,0.00,WUHU216DAVISVP2,2013-07-06 11:34:00,
2013-07-06 07:35:00,69.2,67.7,29.28,SE,125,0.0,5.0,95,0.00,,,0.00,WUHU216DAVISVP2,2013-07-06 11:35:00,
2013-07-06 07:36:00,69.2,67.7,29.28,SE,125,0.0,2.0,95,0.00,,,0.00,WUHU216DAVISVP2,2013-07-06 11:36:00,
2013-07-06 07:38:00,69.2,67.7,29.27,SE,125,0.0,4.0,95,0.00,,,0.00,WUHU216DAVISVP2,2013-07-06 11:38:00,
2013-07-06 07:39:00,69.2,67.7,29.27,SE,125,0.0,4.0,95,0.00,,,0.00,WUHU216DAVISVP2,2013-07-06 11:39:00,
2013-07-06 07:40:00,69.2,67.7,29.28,SE,125,1.0,5.0,95,0.00,,,0.00,WUHU216DAVISVP2,2013-07-06 11:40:00,
2013-07-06 07:41:00,69.2,67.7,29.27,SE,125,1.0,5.0,95,0.00,,,0.00,WUHU216DAVISVP2,2013-07-06 11:41:00,
2013-07-06 07:44:00,69.2,67.7,29.27,SSE,156,1.0,5.0,95,0.00,,,0.00,WUHU216DAVISVP2,2013-07-06 11:44:00,
2013-07-06 07:45:00,69.2,67.7,29.27,SSW,206,2.0,5.0,95,0.00,,,0.00,WUHU216DAVISVP2,2013-07-06 11:45:00,
2013-07-06 07:46:00,69.2,67.7,29.27,SSW,206,0.0,5.0,95,0.00,,,0.00,WUHU216DAVISVP2,2013-07-06 11:46:00,
2013-07-06 07:49:00,69.3,67.8,29.27,SSW,204,0.0,5.0,95,0.00,,,0.00,WUHU216DAVISVP2,2013-07-06 11:49:00,
2013-07-06 07:50:00,69.3,67.8,29.27,SSW,204,0.0,5.0,95,0.00,,,0.00,WUHU216DAVISVP2,2013-07-06 11:50:00,
2013-07-06 07:51:00,69.3,67.8,29.27,SSW,204,1.0,5.0,95,0.00,,,0.00,WUHU216DAVISVP2,2013-07-06 11:51:00,
2013-07-06 07:54:00,69.4,67.9,29.28,South,185,1.0,5.0,95,0.00,,,0.00,WUHU216DAVISVP2,2013-07-06 11:54:00,
2013-07-06 07:55:00,69.4,67.9,29.28,South,185,1.0,5.0,95,0.00,,,0.00,WUHU216DAVISVP2,2013-07-06 11:55:00,
2013-07-06 07:56:00,69.4,67.9,29.28,South,184,0.0,5.0,95,0.00,,,0.00,WUHU216DAVISVP2,2013-07-06 11:56:00,
2013-07-06 07:59:00,69.6,68.1,29.27,South,184,0.0,4.0,95,0.00,,,0.00,WUHU216DAVISVP2,2013-07-06 11:59:00,
2013-07-06 08:00:00,69.6,68.1,29.27,South,184,0.0,4.0,95,0.00,,,0.00,WUHU216DAVISVP2,2013-07-06 12:00:00,
2013-07-06 08:01:00,69.6,68.1,29.27,South,184,0.0,4.0,95,0.00,,,0.00,WUHU216DAVISVP2,2013-07-06 12:01:00,
2013-07-06 08:04:00,69.7,68.2,29.27,South,184,1.0,4.0,95,0.00,,,0.00,WUHU216DAVISVP2,2013-07-06 12:04:00,
2013-07-06 08:05:00,69.8,68.3,29.27,South,184,0.0,4.0,95,0.00,,,0.00,WUHU216DAVISVP2,2013-07-06 12:05:00,
2013-07-06 08:06:00,69.8,68.3,29.27,South,184,0.0,4.0,95,0.00,,,0.00,WUHU216DAVISVP2,2013-07-06 12:06:00,
2013-07-06 08:07:00,69.8,68.3,29.27,South,184,0.0,4.0,95,0.00,,,0.00,WUHU216DAVISVP2,2013-07-06 12:07:00,
2013-07-06 08:10:00,69.9,68.4,29.28,South,184,2.0,4.0,95,0.00,,,0.00,WUHU216DAVISVP2,2013-07-06 12:10:00,
2013-07-06 08:11:00,69.9,68.4,29.28,South,184,5.0,5.0,95,0.00,,,0.00,WUHU216DAVISVP2,2013-07-06 12:11:00,
2013-07-06 08:12:00,69.9,68.4,29.28,South,184,0.0,5.0,95,0.00,,,0.00,WUHU216DAVISVP2,2013-07-06 12:12:00,
2013-07-06 08:15:00,70.0,68.5,29.28,South,184,0.0,5.0,95,0.00,,,0.00,WUHU216DAVISVP2,2013-07-06 12:15:00,
2013-07-06 08:16:00,70.1,68.6,29.28,South,184,0.0,5.0,95,0.00,,,0.00,WUHU216DAVISVP2,2013-07-06 12:16:00,
2013-07-06 08:18:00,70.1,68.6,29.27,South,184,0.0,5.0,95,0.00,,,0.00,WUHU216DAVISVP2,2013-07-06 12:18:00,
2013-07-06 08:20:00,70.2,68.7,29.27,South,184,1.0,5.0,95,0.00,,,0.00,WUHU216DAVISVP2,2013-07-06 12:20:00,
2013-07-06 08:21:00,70.2,68.7,29.27,South,184,0.0,5.0,95,0.00,,,0.00,WUHU216DAVISVP2,2013-07-06 12:21:00,
2013-07-06 08:23:00,70.3,68.8,29.27,South,184,0.0,5.0,95,0.00,,,0.00,WUHU216DAVISVP2,2013-07-06 12:23:00,
2013-07-06 08:25:00,70.4,68.9,29.27,South,184,2.0,5.0,95,0.00,,,0.00,WUHU216DAVISVP2,2013-07-06 12:25:00,
2013-07-06 08:26:00,70.4,68.9,29.27,South,184,0.0,5.0,95,0.00,,,0.00,WUHU216DAVISVP2,2013-07-06 12:26:00,
2013-07-06 08:27:00,70.4,68.9,29.27,South,184,0.0,5.0,95,0.00,,,0.00,WUHU216DAVISVP2,2013-07-06 12:27:00,
2013-07-06 08:28:00,70.5,69.0,29.28,South,184,1.0,5.0,95,0.00,,,0.00,WUHU216DAVISVP2,2013-07-06 12:28:00,
2013-07-06 08:30:00,70.5,69.0,29.28,South,184,4.0,4.0,95,0.00,,,0.00,WUHU216DAVISVP2,2013-07-06 12:30:00,
2013-07-06 08:31:00,70.6,69.1,29.28,South,184,1.0,4.0,95,0.00,,,0.00,WUHU216DAVISVP2,2013-07-06 12:31:00,
2013-07-06 08:32:00,70.6,69.1,29.28,South,184,6.0,6.0,95,0.00,,,0.00,WUHU216DAVISVP2,2013-07-06 12:32:00,
2013-07-06 08:33:00,70.6,69.1,29.28,South,184,0.0,6.0,95,0.00,,,0.00,WUHU216DAVISVP2,2013-07-06 12:33:00,
2013-07-06 08:35:00,70.7,69.2,29.28,South,184,0.0,6.0,95,0.00,,,0.00,WUHU216DAVISVP2,2013-07-06 12:35:00,
2013-07-06 08:37:00,70.7,69.2,29.28,South,184,0.0,6.0,95,0.00,,,0.00,WUHU216DAVISVP2,2013-07-06 12:37:00,
2013-07-06 08:39:00,70.8,69.0,29.28,South,184,0.0,6.0,94,0.00,,,0.00,WUHU216DAVISVP2,2013-07-06 12:39:00,
2013-07-06 08:40:00,70.8,69.3,29.28,South,184,0.0,6.0,95,0.00,,,0.00,WUHU216DAVISVP2,2013-07-06 12:40:00,
2013-07-06 08:42:00,70.9,69.4,29.28,WSW,245,0.0,6.0,95,0.00,,,0.00,WUHU216DAVISVP2,2013-07-06 12:42:00,
2013-07-06 08:44:00,71.0,69.2,29.28,WSW,245,2.0,6.0,94,0.00,,,0.00,WUHU216DAVISVP2,2013-07-06 12:44:00,
2013-07-06 08:45:00,71.0,69.2,29.28,WSW,240,0.0,6.0,94,0.00,,,0.00,WUHU216DAVISVP2,2013-07-06 12:45:00,
2013-07-06 08:47:00,71.0,69.2,29.28,SSW,197,1.0,6.0,94,0.00,,,0.00,WUHU216DAVISVP2,2013-07-06 12:47:00,
2013-07-06 08:49:00,71.0,69.2,29.28,South,189,0.0,6.0,94,0.00,,,0.00,WUHU216DAVISVP2,2013-07-06 12:49:00,
2013-07-06 08:50:00,71.1,69.3,29.28,South,191,5.0,6.0,94,0.00,,,0.00,WUHU216DAVISVP2,2013-07-06 12:50:00,
2013-07-06 08:52:00,71.1,69.3,29.28,South,185,0.0,5.0,94,0.00,,,0.00,WUHU216DAVISVP2,2013-07-06 12:52:00,
2013-07-06 08:54:00,71.2,69.4,29.28,SW,215,2.0,5.0,94,0.00,,,0.00,WUHU216DAVISVP2,2013-07-06 12:54:00,
2013-07-06 08:56:00,71.2,69.4,29.28,SW,216,5.0,7.0,94,0.00,,,0.00,WUHU216DAVISVP2,2013-07-06 12:56:00,
2013-07-06 08:57:00,71.2,69.4,29.28,SW,216,1.0,7.0,94,0.00,,,0.00,WUHU216DAVISVP2,2013-07-06 12:57:00,
2013-07-06 08:59:00,71.3,69.1,29.28,SSW,193,1.0,7.0,93,0.00,,,0.00,WUHU216DAVISVP2,2013-07-06 12:59:00,
2013-07-06 09:00:00,71.3,69.5,29.28,South,181,2.0,7.0,94,0.00,,,0.00,WUHU216DAVISVP2,2013-07-06 13:00:00,
2013-07-06 09:01:00,71.3,69.5,29.28,South,179,1.0,7.0,94,0.00,,,0.00,WUHU216DAVISVP2,2013-07-06 13:01:00,
2013-07-06 09:03:00,71.4,69.2,29.28,South,189,0.0,7.0,93,0.00,,,0.00,WUHU216DAVISVP2,2013-07-06 13:03:00,
2013-07-06 09:04:00,71.4,69.6,29.28,South,189,3.0,7.0,94,0.00,,,0.00,WUHU216DAVISVP2,2013-07-06 13:04:00,
2013-07-06 09:06:00,71.5,69.3,29.27,South,179,1.0,7.0,93,0.00,,,0.00,WUHU216DAVISVP2,2013-07-06 13:06:00,
2013-07-06 09:08:00,71.5,69.3,29.28,South,191,0.0,7.0,93,0.00,,,0.00,WUHU216DAVISVP2,2013-07-06 13:08:00,
2013-07-06 09:09:00,71.6,69.4,29.28,South,191,1.0,7.0,93,0.00,,,0.00,WUHU216DAVISVP2,2013-07-06 13:09:00,
2013-07-06 09:10:00,71.6,69.4,29.28,SSW,192,4.0,7.0,93,0.00,,,0.00,WUHU216DAVISVP2,2013-07-06 13:10:00,
2013-07-06 09:11:00,71.6,69.4,29.28,SW,232,4.0,8.0,93,0.00,,,0.00,WUHU216DAVISVP2,2013-07-06 13:11:00,
2013-07-06 09:13:00,71.6,69.4,29.27,South,187,2.0,8.0,93,0.00,,,0.00,WUHU216DAVISVP2,2013-07-06 13:13:00,
2013-07-06 09:14:00,71.7,69.5,29.27,SW,226,2.0,8.0,93,0.00,,,0.00,WUHU216DAVISVP2,2013-07-06 13:14:00,
2013-07-06 09:15:00,71.7,69.5,29.27,SSW,199,1.0,8.0,93,0.00,,,0.00,WUHU216DAVISVP2,2013-07-06 13:15:00,
2013-07-06 09:16:00,71.8,69.6,29.27,WSW,247,0.0,8.0,93,0.00,,,0.00,WUHU216DAVISVP2,2013-07-06 13:16:00,
2013-07-06 09:17:00,71.8,69.6,29.27,WSW,247,0.0,8.0,93,0.00,,,0.00,WUHU216DAVISVP2,2013-07-06 13:17:00,
2013-07-06 09:18:00,71.9,69.7,29.27,SSW,203,0.0,8.0,93,0.00,,,0.00,WUHU216DAVISVP2,2013-07-06 13:18:00,
2013-07-06 09:19:00,71.9,69.7,29.28,SSW,203,0.0,8.0,93,0.00,,,0.00,WUHU216DAVISVP2,2013-07-06 13:19:00,
2013-07-06 09:20:00,71.9,69.7,29.28,SSW,203,1.0,8.0,93,0.00,,,0.00,WUHU216DAVISVP2,2013-07-06 13:20:00,
2013-07-06 09:21:00,71.9,69.7,29.28,SSW,201,4.0,8.0,93,0.00,,,0.00,WUHU216DAVISVP2,2013-07-06 13:21:00,
2013-07-06 09:22:00,71.9,69.7,29.28,South,181,3.0,8.0,93,0.00,,,0.00,WUHU216DAVISVP2,2013-07-06 13:22:00,
2013-07-06 09:24:00,71.9,69.4,29.28,WSW,247,5.0,8.0,92,0.00,,,0.00,WUHU216DAVISVP2,2013-07-06 13:24:00,
2013-07-06 09:25:00,71.9,69.4,29.28,WSW,247,1.0,8.0,92,0.00,,,0.00,WUHU216DAVISVP2,2013-07-06 13:25:00,
2013-07-06 09:26:00,71.9,69.4,29.28,SSW,210,0.0,8.0,92,0.00,,,0.00,WUHU216DAVISVP2,2013-07-06 13:26:00,
2013-07-06 09:27:00,71.9,69.4,29.28,South,187,3.0,8.0,92,0.00,,,0.00,WUHU216DAVISVP2,2013-07-06 13:27:00,
2013-07-06 09:29:00,72.0,69.5,29.28,SW,224,2.0,7.0,92,0.00,,,0.00,WUHU216DAVISVP2,2013-07-06 13:29:00,
2013-07-06 09:30:00,72.0,69.5,29.28,SW,228,0.0,7.0,92,0.00,,,0.00,WUHU216DAVISVP2,2013-07-06 13:30:00,
2013-07-06 09:31:00,71.9,69.4,29.28,SW,226,2.0,8.0,92,0.00,,,0.00,WUHU216DAVISVP2,2013-07-06 13:31:00,
2013-07-06 09:32:00,71.9,69.4,29.28,SSW,196,3.0,8.0,92,0.00,,,0.00,WUHU216DAVISVP2,2013-07-06 13:32:00,
2013-07-06 09:34:00,72.0,69.5,29.28,SSE,167,6.0,8.0,92,0.00,,,0.00,WUHU216DAVISVP2,2013-07-06 13:34:00,
2013-07-06 09:35:00,72.0,69.5,29.28,SW,223,5.0,8.0,92,0.00,,,0.00,WUHU216DAVISVP2,2013-07-06 13:35:00,
2013-07-06 09:37:00,72.0,69.5,29.28,SSW,202,2.0,8.0,92,0.00,,,0.00,WUHU216DAVISVP2,2013-07-06 13:37:00,
2013-07-06 09:39:00,72.0,69.5,29.28,SW,216,0.0,8.0,92,0.00,,,0.00,WUHU216DAVISVP2,2013-07-06 13:39:00,
2013-07-06 09:40:00,72.0,69.5,29.28,SW,216,0.0,8.0,92,0.00,,,0.00,WUHU216DAVISVP2,2013-07-06 13:40:00,
2013-07-06 09:41:00,72.0,69.5,29.28,SW,216,3.0,8.0,92,0.00,,,0.00,WUHU216DAVISVP2,2013-07-06 13:41:00,
2013-07-06 09:42:00,72.0,69.5,29.27,SW,228,0.0,8.0,92,0.00,,,0.00,WUHU216DAVISVP2,2013-07-06 13:42:00,
2013-07-06 09:45:00,72.0,69.5,29.27,SW,214,0.0,8.0,92,0.00,,,0.00,WUHU216DAVISVP2,2013-07-06 13:45:00,
2013-07-06 09:46:00,72.0,69.5,29.28,SW,214,1.0,8.0,92,0.00,,,0.00,WUHU216DAVISVP2,2013-07-06 13:46:00,
2013-07-06 09:47:00,72.0,69.5,29.28,WSW,239,1.0,8.0,92,0.00,,,0.00,WUHU216DAVISVP2,2013-07-06 13:47:00,
2013-07-06 09:48:00,72.0,69.5,29.28,SSW,199,4.0,8.0,92,0.00,,,0.00,WUHU216DAVISVP2,2013-07-06 13:48:00,
2013-07-06 09:50:00,72.1,69.6,29.28,South,182,6.0,8.0,92,0.00,,,0.00,WUHU216DAVISVP2,2013-07-06 13:50:00,
2013-07-06 09:51:00,72.1,69.6,29.27,South,181,8.0,8.0,92,0.00,,,0.00,WUHU216DAVISVP2,2013-07-06 13:51:00,
2013-07-06 09:53:00,72.1,69.6,29.27,South,183,2.0,8.0,92,0.00,,,0.00,WUHU216DAVISVP2,2013-07-06 13:53:00,
2013-07-06 09:55:00,72.1,69.6,29.27,South,178,0.0,9.0,92,0.00,,,0.00,WUHU216DAVISVP2,2013-07-06 13:55:00,
2013-07-06 09:56:00,72.1,69.6,29.27,South,178,2.0,9.0,92,0.00,,,0.00,WUHU216DAVISVP2,2013-07-06 13:56:00,
2013-07-06 09:58:00,72.1,69.6,29.27,SE,135,4.0,9.0,92,0.00,,,0.00,WUHU216DAVISVP2,2013-07-06 13:58:00,
2013-07-06 10:00:00,72.1,69.6,29.27,SW,226,5.0,9.0,92,0.00,,,0.00,WUHU216DAVISVP2,2013-07-06 14:00:00,
2013-07-06 10:01:00,72.0,69.2,29.27,SW,230,7.0,10.0,91,0.00,,,0.00,WUHU216DAVISVP2,2013-07-06 14:01:00,
2013-07-06 10:03:00,72.1,69.3,29.27,South,184,1.0,10.0,91,0.00,,,0.00,WUHU216DAVISVP2,2013-07-06 14:03:00,
2013-07-06 10:05:00,72.1,69.6,29.27,SSW,209,0.0,10.0,92,0.00,,,0.00,WUHU216DAVISVP2,2013-07-06 14:05:00,
2013-07-06 10:06:00,72.1,69.3,29.27,South,179,6.0,10.0,91,0.00,,,0.00,WUHU216DAVISVP2,2013-07-06 14:06:00,
2013-07-06 10:08:00,72.1,69.3,29.27,SW,214,1.0,10.0,91,0.00,,,0.00,WUHU216DAVISVP2,2013-07-06 14:08:00,
2013-07-06 10:10:00,72.1,69.3,29.27,SSW,196,0.0,10.0,91,0.00,,,0.00,WUHU216DAVISVP2,2013-07-06 14:10:00,
2013-07-06 10:11:00,72.2,69.4,29.27,SW,227,2.0,10.0,91,0.00,,,0.00,WUHU216DAVISVP2,2013-07-06 14:11:00,
2013-07-06 10:13:00,72.2,69.4,29.27,SSE,156,1.0,10.0,91,0.00,,,0.00,WUHU216DAVISVP2,2013-07-06 14:13:00,
2013-07-06 10:16:00,72.3,69.5,29.27,SSW,212,4.0,10.0,91,0.00,,,0.00,WUHU216DAVISVP2,2013-07-06 14:16:00,
2013-07-06 10:18:00,72.3,69.5,29.27,South,187,1.0,10.0,91,0.00,,,0.00,WUHU216DAVISVP2,2013-07-06 14:18:00,
2013-07-06 10:21:00,72.3,69.5,29.27,SW,216,1.0,10.0,91,0.00,,,0.00,WUHU216DAVISVP2,2013-07-06 14:21:00,
2013-07-06 10:22:00,72.3,69.5,29.27,South,174,5.0,10.0,91,0.00,,,0.00,WUHU216DAVISVP2,2013-07-06 14:22:00,
2013-07-06 10:23:00,72.3,69.5,29.27,SSW,208,8.0,10.0,91,0.00,,,0.00,WUHU216DAVISVP2,2013-07-06 14:23:00,
2013-07-06 10:24:00,72.4,69.6,29.27,SSW,194,1.0,10.0,91,0.00,,,0.00,WUHU216DAVISVP2,2013-07-06 14:24:00,
2013-07-06 10:26:00,72.3,69.5,29.27,WSW,244,8.0,11.0,91,0.00,,,0.00,WUHU216DAVISVP2,2013-07-06 14:26:00,
2013-07-06 10:27:00,72.3,69.5,29.27,SSW,202,8.0,11.0,91,0.00,,,0.00,WUHU216DAVISVP2,2013-07-06 14:27:00,
2013-07-06 10:28:00,72.2,69.4,29.27,SW,223,3.0,11.0,91,0.00,,,0.00,WUHU216DAVISVP2,2013-07-06 14:28:00,
2013-07-06 10:29:00,72.2,69.4,29.27,SW,235,6.0,11.0,91,0.00,,,0.00,WUHU216DAVISVP2,2013-07-06 14:29:00,
2013-07-06 10:31:00,72.1,69.3,29.27,South,183,6.0,11.0,91,0.00,,,0.00,WUHU216DAVISVP2,2013-07-06 14:31:00,
2013-07-06 10:32:00,72.1,69.3,29.27,SW,222,9.0,12.0,91,0.00,,,0.00,WUHU216DAVISVP2,2013-07-06 14:32:00,
2013-07-06 10:33:00,72.0,69.2,29.27,SW,236,9.0,14.0,91,0.00,,,0.00,WUHU216DAVISVP2,2013-07-06 14:33:00,
2013-07-06 10:34:00,72.0,69.2,29.27,South,189,6.0,14.0,91,0.00,,,0.00,WUHU216DAVISVP2,2013-07-06 14:34:00,
2013-07-06 10:36:00,71.9,68.8,29.27,SW,216,4.0,14.0,90,0.00,,,0.00,WUHU216DAVISVP2,2013-07-06 14:36:00,
2013-07-06 10:37:00,71.8,68.7,29.27,WSW,247,8.0,14.0,90,0.00,,,0.00,WUHU216DAVISVP2,2013-07-06 14:37:00,
2013-07-06 10:39:00,71.7,68.6,29.27,WSW,251,6.0,14.0,90,0.00,,,0.00,WUHU216DAVISVP2,2013-07-06 14:39:00,
2013-07-06 10:42:00,71.6,68.5,29.27,South,187,3.0,14.0,90,0.00,,,0.00,WUHU216DAVISVP2,2013-07-06 14:42:00,
2013-07-06 10:44:00,71.5,68.7,29.27,South,181,10.0,14.0,91,0.00,,,0.00,WUHU216DAVISVP2,2013-07-06 14:44:00,
2013-07-06 10:47:00,71.5,68.7,29.28,SW,224,7.0,14.0,91,0.00,,,0.00,WUHU216DAVISVP2,2013-07-06 14:47:00,
2013-07-06 10:48:00,71.5,68.7,29.28,SSW,199,4.0,14.0,91,0.00,,,0.00,WUHU216DAVISVP2,2013-07-06 14:48:00,
2013-07-06 10:49:00,71.6,68.8,29.27,SW,220,2.0,14.0,91,0.00,,,0.00,WUHU216DAVISVP2,2013-07-06 14:49:00,
2013-07-06 10:52:00,71.6,68.8,29.27,SSW,199,0.0,12.0,91,0.00,,,0.00,WUHU216DAVISVP2,2013-07-06 14:52:00,
2013-07-06 10:53:00,71.7,68.9,29.27,SW,235,6.0,12.0,91,0.00,,,0.00,WUHU216DAVISVP2,2013-07-06 14:53:00,
2013-07-06 10:54:00,71.7,68.9,29.27,WSW,237,1.0,12.0,91,0.00,,,0.00,WUHU216DAVISVP2,2013-07-06 14:54:00,
2013-07-06 10:55:00,71.8,69.0,29.27,South,183,3.0,12.0,91,0.00,,,0.00,WUHU216DAVISVP2,2013-07-06 14:55:00,
2013-07-06 10:57:00,71.9,69.1,29.27,SW,233,5.0,12.0,91,0.00,,,0.00,WUHU216DAVISVP2,2013-07-06 14:57:00,
2013-07-06 10:58:00,71.9,69.1,29.27,SSE,160,6.0,12.0,91,0.00,,,0.00,WUHU216DAVISVP2,2013-07-06 14:58:00,
2013-07-06 10:59:00,71.9,69.1,29.27,SSW,205,3.0,12.0,91,0.00,,,0.00,WUHU216DAVISVP2,2013-07-06 14:59:00,
2013-07-06 11:00:00,71.9,69.1,29.27,SSE,168,6.0,12.0,91,0.00,,,0.00,WUHU216DAVISVP2,2013-07-06 15:00:00,
2013-07-06 11:02:00,72.0,69.2,29.27,South,191,0.0,12.0,91,0.00,,,0.00,WUHU216DAVISVP2,2013-07-06 15:02:00,
2013-07-06 11:03:00,72.0,69.2,29.27,South,177,4.0,11.0,91,0.00,,,0.00,WUHU216DAVISVP2,2013-07-06 15:03:00,
2013-07-06 11:04:00,72.0,69.2,29.27,SSW,209,3.0,11.0,91,0.00,,,0.00,WUHU216DAVISVP2,2013-07-06 15:04:00,
2013-07-06 11:05:00,72.1,69.3,29.27,WSW,237,5.0,11.0,91,0.00,,,0.00,WUHU216DAVISVP2,2013-07-06 15:05:00,
2013-07-06 11:08:00,72.1,69.0,29.27,South,170,9.0,11.0,90,0.00,,,0.00,WUHU216DAVISVP2,2013-07-06 15:08:00,
2013-07-06 11:09:00,72.1,69.0,29.27,SSW,192,3.0,11.0,90,0.00,,,0.00,WUHU216DAVISVP2,2013-07-06 15:09:00,
2013-07-06 11:11:00,72.1,69.0,29.27,SSW,209,2.0,11.0,90,0.00,,,0.00,WUHU216DAVISVP2,2013-07-06 15:11:00,
2013-07-06 11:13:00,72.0,68.6,29.27,WSW,239,3.0,11.0,89,0.00,,,0.00,WUHU216DAVISVP2,2013-07-06 15:13:00,
2013-07-06 11:15:00,71.9,68.8,29.27,SW,231,6.0,12.0,90,0.00,,,0.00,WUHU216DAVISVP2,2013-07-06 15:15:00,
2013-07-06 11:16:00,71.9,68.8,29.27,SSW,213,5.0,12.0,90,0.00,,,0.00,WUHU216DAVISVP2,2013-07-06 15:16:00,
2013-07-06 11:18:00,71.8,68.7,29.27,SW,224,4.0,12.0,90,0.00,,,0.00,WUHU216DAVISVP2,2013-07-06 15:18:00,
2013-07-06 11:19:00,71.9,68.8,29.27,SW,218,0.0,12.0,90,0.00,,,0.00,WUHU216DAVISVP2,2013-07-06 15:19:00,
2013-07-06 11:20:00,71.9,68.8,29.27,South,179,4.0,12.0,90,0.00,,,0.00,WUHU216DAVISVP2,2013-07-06 15:20:00,
2013-07-06 11:21:00,71.9,68.8,29.27,South,187,6.0,12.0,90,0.00,,,0.00,WUHU216DAVISVP2,2013-07-06 15:21:00,
2013-07-06 11:23:00,71.9,68.5,29.27,SW,218,1.0,12.0,89,0.00,,,0.00,WUHU216DAVISVP2,2013-07-06 15:23:00,
2013-07-06 11:25:00,71.9,68.5,29.27,South,183,5.0,12.0,89,0.00,,,0.00,WUHU216DAVISVP2,2013-07-06 15:25:00,
2013-07-06 11:26:00,71.9,68.5,29.27,SW,216,0.0,12.0,89,0.00,,,0.00,WUHU216DAVISVP2,2013-07-06 15:26:00,
2013-07-06 11:28:00,71.9,68.5,29.27,SSW,196,1.0,12.0,89,0.00,,,0.00,WUHU216DAVISVP2,2013-07-06 15:28:00,
2013-07-06 11:29:00,71.9,68.5,29.27,SW,214,2.0,12.0,89,0.00,,,0.00,WUHU216DAVISVP2,2013-07-06 15:29:00,
2013-07-06 11:30:00,71.9,68.2,29.27,SSW,199,1.0,12.0,88,0.00,,,0.00,WUHU216DAVISVP2,2013-07-06 15:30:00,
2013-07-06 11:32:00,71.9,68.2,29.27,SSW,213,2.0,12.0,88,0.00,,,0.00,WUHU216DAVISVP2,2013-07-06 15:32:00,
2013-07-06 11:33:00,71.9,68.5,29.27,SW,226,2.0,11.0,89,0.00,,,0.00,WUHU216DAVISVP2,2013-07-06 15:33:00,
2013-07-06 11:34:00,72.0,68.6,29.27,SW,226,4.0,11.0,89,0.00,,,0.00,WUHU216DAVISVP2,2013-07-06 15:34:00,
2013-07-06 11:35:00,72.0,68.6,29.27,SW,226,2.0,11.0,89,0.00,,,0.00,WUHU216DAVISVP2,2013-07-06 15:35:00,
2013-07-06 11:36:00,72.0,68.6,29.27,SSW,205,2.0,11.0,89,0.00,,,0.00,WUHU216DAVISVP2,2013-07-06 15:36:00,
2013-07-06 11:37:00,72.0,68.6,29.27,SSW,208,2.0,11.0,89,0.00,,,0.00,WUHU216DAVISVP2,2013-07-06 15:37:00,
2013-07-06 11:38:00,72.0,68.3,29.27,SW,224,6.0,11.0,88,0.00,,,0.00,WUHU216DAVISVP2,2013-07-06 15:38:00,
2013-07-06 11:39:00,72.0,68.3,29.27,SW,228,5.0,11.0,88,0.00,,,0.00,WUHU216DAVISVP2,2013-07-06 15:39:00,
2013-07-06 11:40:00,72.0,68.3,29.27,SSW,203,1.0,11.0,88,0.00,,,0.00,WUHU216DAVISVP2,2013-07-06 15:40:00,
2013-07-06 11:41:00,72.0,68.3,29.27,South,169,5.0,11.0,88,0.00,,,0.00,WUHU216DAVISVP2,2013-07-06 15:41:00,
2013-07-06 11:43:00,72.0,68.3,29.27,South,173,5.0,11.0,88,0.00,,,0.00,WUHU216DAVISVP2,2013-07-06 15:43:00,
2013-07-06 11:44:00,72.0,68.3,29.27,WSW,239,6.0,11.0,88,0.00,,,0.00,WUHU216DAVISVP2,2013-07-06 15:44:00,
2013-07-06 11:45:00,72.0,68.3,29.27,WSW,239,4.0,11.0,88,0.00,,,0.00,WUHU216DAVISVP2,2013-07-06 15:45:00,
2013-07-06 11:46:00,72.0,68.3,29.27,SSW,197,0.0,10.0,88,0.00,,,0.00,WUHU216DAVISVP2,2013-07-06 15:46:00,
2013-07-06 11:48:00,72.0,68.3,29.27,South,181,6.0,10.0,88,0.00,,,0.00,WUHU216DAVISVP2,2013-07-06 15:48:00,
2013-07-06 11:49:00,72.0,68.3,29.27,South,183,2.0,10.0,88,0.00,,,0.00,WUHU216DAVISVP2,2013-07-06 15:49:00,
2013-07-06 11:50:00,72.0,68.3,29.27,South,184,0.0,10.0,88,0.00,,,0.00,WUHU216DAVISVP2,2013-07-06 15:50:00,
2013-07-06 11:51:00,72.1,68.4,29.27,SSW,208,4.0,10.0,88,0.00,,,0.00,WUHU216DAVISVP2,2013-07-06 15:51:00,
2013-07-06 11:53:00,72.1,68.3,29.27,SSW,193,1.0,10.0,88,0.00,,,0.00,WUHU216DAVISVP2,2013-07-06 15:53:00,
2013-07-06 11:54:00,72.1,68.0,29.27,SSE,149,5.0,10.0,87,0.00,,,0.00,WUHU216DAVISVP2,2013-07-06 15:54:00,
2013-07-06 11:55:00,72.0,67.9,29.27,South,185,4.0,10.0,87,0.00,,,0.00,WUHU216DAVISVP2,2013-07-06 15:55:00,
2013-07-06 11:56:00,72.0,67.9,29.27,South,175,4.0,10.0,87,0.00,,,0.00,WUHU216DAVISVP2,2013-07-06 15:56:00,
2013-07-06 11:58:00,71.9,67.8,29.27,SW,218,5.0,10.0,87,0.00,,,0.00,WUHU216DAVISVP2,2013-07-06 15:58:00,
2013-07-06 11:59:00,71.9,67.8,29.27,SSW,211,4.0,10.0,87,0.00,,,0.00,WUHU216DAVISVP2,2013-07-06 15:59:00,
2013-07-06 12:00:00,71.9,67.8,29.27,SW,232,1.0,10.0,87,0.00,,,0.00,WUHU216DAVISVP2,2013-07-06 16:00:00,
2013-07-06 12:02:00,71.9,68.2,29.27,SSW,206,1.0,10.0,88,0.00,,,0.00,WUHU216DAVISVP2,2013-07-06 16:02:00,
2013-07-06 12:03:00,71.9,67.8,29.27,SSE,168,7.0,10.0,87,0.00,,,0.00,WUHU216DAVISVP2,2013-07-06 16:03:00,
2013-07-06 12:04:00,71.8,67.7,29.27,SSW,206,1.0,10.0,87,0.00,,,0.00,WUHU216DAVISVP2,2013-07-06 16:04:00,
2013-07-06 12:05:00,71.8,67.7,29.27,South,170,5.0,10.0,87,0.00,,,0.00,WUHU216DAVISVP2,2013-07-06 16:05:00,
2013-07-06 12:09:00,71.7,68.0,29.27,SSE,162,1.0,10.0,88,0.00,,,0.00,WUHU216DAVISVP2,2013-07-06 16:09:00,
2013-07-06 12:10:00,71.7,67.6,29.27,South,185,7.0,10.0,87,0.00,,,0.00,WUHU216DAVISVP2,2013-07-06 16:10:00,
2013-07-06 12:14:00,71.8,67.7,29.27,South,183,0.0,9.0,87,0.00,,,0.00,WUHU216DAVISVP2,2013-07-06 16:14:00,
2013-07-06 12:15:00,71.9,67.8,29.27,South,183,3.0,8.0,87,0.00,,,0.00,WUHU216DAVISVP2,2013-07-06 16:15:00,
2013-07-06 12:17:00,71.9,67.8,29.27,South,178,2.0,8.0,87,0.00,,,0.00,WUHU216DAVISVP2,2013-07-06 16:17:00,
2013-07-06 12:19:00,72.0,67.6,29.27,South,187,0.0,8.0,86,0.00,,,0.00,WUHU216DAVISVP2,2013-07-06 16:19:00,
2013-07-06 12:20:00,72.1,67.7,29.27,SSE,165,1.0,8.0,86,0.00,,,0.00,WUHU216DAVISVP2,2013-07-06 16:20:00,
2013-07-06 12:22:00,72.3,67.9,29.27,SSE,165,2.0,8.0,86,0.00,,,0.00,WUHU216DAVISVP2,2013-07-06 16:22:00,
2013-07-06 12:25:00,72.5,67.8,29.27,South,171,6.0,8.0,85,0.00,,,0.00,WUHU216DAVISVP2,2013-07-06 16:25:00,
2013-07-06 12:26:00,72.5,67.8,29.27,South,177,2.0,8.0,85,0.00,,,0.00,WUHU216DAVISVP2,2013-07-06 16:26:00,
2013-07-06 12:27:00,72.6,67.9,29.27,South,190,1.0,8.0,85,0.00,,,0.00,WUHU216DAVISVP2,2013-07-06 16:27:00,
2013-07-06 12:31:00,72.9,68.1,29.26,SW,222,2.0,8.0,85,0.00,,,0.00,WUHU216DAVISVP2,2013-07-06 16:31:00,
2013-07-06 12:35:00,73.0,67.9,29.27,SW,219,5.0,14.0,84,0.00,,,0.00,WUHU216DAVISVP2,2013-07-06 16:35:00,
2013-07-06 12:38:00,73.0,67.5,29.27,South,182,1.0,14.0,83,0.00,,,0.00,WUHU216DAVISVP2,2013-07-06 16:38:00,
2013-07-06 12:41:00,73.1,68.0,29.27,SSW,208,1.0,14.0,84,0.00,,,0.00,WUHU216DAVISVP2,2013-07-06 16:41:00,
2013-07-06 12:43:00,73.3,68.2,29.27,South,177,4.0,14.0,84,0.00,,,0.00,WUHU216DAVISVP2,2013-07-06 16:43:00,
2013-07-06 12:45:00,73.4,68.3,29.27,SSW,205,4.0,14.0,84,0.00,,,0.00,WUHU216DAVISVP2,2013-07-06 16:45:00,
2013-07-06 12:46:00,73.5,68.1,29.27,SSW,204,2.0,14.0,83,0.00,,,0.00,WUHU216DAVISVP2,2013-07-06 16:46:00,
2013-07-06 12:50:00,73.6,68.2,29.26,SW,214,1.0,14.0,83,0.00,,,0.00,WUHU216DAVISVP2,2013-07-06 16:50:00,
2013-07-06 12:51:00,73.7,68.6,29.26,South,187,4.0,14.0,84,0.00,,,0.00,WUHU216DAVISVP2,2013-07-06 16:51:00,
2013-07-06 12:55:00,74.0,68.9,29.26,SW,217,8.0,12.0,84,0.00,,,0.00,WUHU216DAVISVP2,2013-07-06 16:55:00,
2013-07-06 12:56:00,74.1,69.0,29.26,SSE,162,9.0,12.0,84,0.00,,,0.00,WUHU216DAVISVP2,2013-07-06 16:56:00,
2013-07-06 12:57:00,74.2,69.1,29.26,South,175,4.0,12.0,84,0.00,,,0.00,WUHU216DAVISVP2,2013-07-06 16:57:00,
2013-07-06 13:01:00,74.4,68.5,29.26,SW,231,8.0,12.0,82,0.00,,,0.00,WUHU216DAVISVP2,2013-07-06 17:01:00,
2013-07-06 13:02:00,74.5,69.0,29.26,SE,145,7.0,12.0,83,0.00,,,0.00,WUHU216DAVISVP2,2013-07-06 17:02:00,
2013-07-06 13:06:00,74.6,68.7,29.26,SSE,166,6.0,12.0,82,0.00,,,0.00,WUHU216DAVISVP2,2013-07-06 17:06:00,
2013-07-06 13:07:00,74.7,69.3,29.26,South,177,0.0,12.0,83,0.00,,,0.00,WUHU216DAVISVP2,2013-07-06 17:07:00,
2013-07-06 13:12:00,74.7,68.9,29.26,SW,225,4.0,12.0,82,0.00,,,0.00,WUHU216DAVISVP2,2013-07-06 17:12:00,
2013-07-06 13:17:00,74.7,68.8,29.26,SSW,201,2.0,11.0,82,0.00,,,0.00,WUHU216DAVISVP2,2013-07-06 17:17:00,
2013-07-06 13:19:00,74.7,68.5,29.26,South,177,8.0,11.0,81,0.00,,,0.00,WUHU216DAVISVP2,2013-07-06 17:19:00,
2013-07-06 13:22:00,74.7,68.5,29.26,WSW,245,1.0,11.0,81,0.00,,,0.00,WUHU216DAVISVP2,2013-07-06 17:22:00,
2013-07-06 13:25:00,74.8,68.6,29.26,SE,145,6.0,11.0,81,0.00,,,0.00,WUHU216DAVISVP2,2013-07-06 17:25:00,
2013-07-06 13:28:00,74.9,68.7,29.26,SSW,207,1.0,11.0,81,0.00,,,0.00,WUHU216DAVISVP2,2013-07-06 17:28:00,
2013-07-06 13:31:00,75.0,68.5,29.25,SE,125,4.0,10.0,80,0.00,,,0.00,WUHU216DAVISVP2,2013-07-06 17:31:00,
2013-07-06 13:33:00,75.0,68.5,29.25,South,185,2.0,10.0,80,0.00,,,0.00,WUHU216DAVISVP2,2013-07-06 17:33:00,
2013-07-06 13:34:00,74.9,68.1,29.25,South,172,9.0,10.0,79,0.00,,,0.00,WUHU216DAVISVP2,2013-07-06 17:34:00,
2013-07-06 13:38:00,74.9,67.9,29.25,South,171,4.0,10.0,79,0.00,,,0.00,WUHU216DAVISVP2,2013-07-06 17:38:00,
2013-07-06 13:39:00,74.9,68.3,29.25,SSE,152,5.0,10.0,80,0.00,,,0.00,WUHU216DAVISVP2,2013-07-06 17:39:00,
2013-07-06 13:40:00,75.0,68.4,29.25,SSE,150,1.0,9.0,80,0.00,,,0.00,WUHU216DAVISVP2,2013-07-06 17:40:00,
2013-07-06 13:44:00,75.2,68.0,29.25,South,191,1.0,9.0,78,0.00,,,0.00,WUHU216DAVISVP2,2013-07-06 17:44:00,
2013-07-06 13:46:00,75.2,68.0,29.25,South,181,9.0,9.0,78,0.00,,,0.00,WUHU216DAVISVP2,2013-07-06 17:46:00,
2013-07-06 13:49:00,75.2,67.3,29.25,South,175,4.0,10.0,76,0.00,,,0.00,WUHU216DAVISVP2,2013-07-06 17:49:00,
2013-07-06 13:51:00,75.3,67.7,29.25,SSE,168,7.0,10.0,77,0.00,,,0.00,WUHU216DAVISVP2,2013-07-06 17:51:00,
2013-07-06 13:54:00,75.4,67.5,29.25,South,177,7.0,10.0,76,0.00,,,0.00,WUHU216DAVISVP2,2013-07-06 17:54:00,
2013-07-06 13:56:00,75.4,67.5,29.25,SW,219,2.0,10.0,76,0.00,,,0.00,WUHU216DAVISVP2,2013-07-06 17:56:00,
2013-07-06 14:00:00,75.5,67.6,29.25,WSW,237,9.0,10.0,76,0.00,,,0.00,WUHU216DAVISVP2,2013-07-06 18:00:00,
2013-07-06 14:02:00,75.5,67.6,29.25,SSW,197,5.0,15.0,76,0.00,,,0.00,WUHU216DAVISVP2,2013-07-06 18:02:00,
2013-07-06 14:03:00,75.6,68.0,29.25,South,173,7.0,15.0,77,0.00,,,0.00,WUHU216DAVISVP2,2013-07-06 18:03:00,
2013-07-06 14:06:00,75.6,67.6,29.25,SSW,201,1.0,15.0,76,0.00,,,0.00,WUHU216DAVISVP2,2013-07-06 18:06:00,
2013-07-06 14:07:00,75.5,67.2,29.25,SSE,165,7.0,15.0,75,0.00,,,0.00,WUHU216DAVISVP2,2013-07-06 18:07:00,
2013-07-06 14:08:00,75.5,67.6,29.25,SSW,197,4.0,15.0,76,0.00,,,0.00,WUHU216DAVISVP2,2013-07-06 18:08:00,
2013-07-06 14:12:00,75.5,67.6,29.25,WSW,258,4.0,15.0,76,0.00,,,0.00,WUHU216DAVISVP2,2013-07-06 18:12:00,
2013-07-06 14:13:00,75.5,67.6,29.25,West,264,4.0,15.0,76,0.00,,,0.00,WUHU216DAVISVP2,2013-07-06 18:13:00,
2013-07-06 14:14:00,75.5,67.6,29.25,WSW,251,9.0,15.0,76,0.00,,,0.00,WUHU216DAVISVP2,2013-07-06 18:14:00,
2013-07-06 14:17:00,75.5,67.2,29.25,WSW,246,6.0,15.0,75,0.00,,,0.00,WUHU216DAVISVP2,2013-07-06 18:17:00,
2013-07-06 14:19:00,75.5,67.2,29.25,WSW,253,5.0,15.0,75,0.00,,,0.00,WUHU216DAVISVP2,2013-07-06 18:19:00,
2013-07-06 14:20:00,75.6,67.3,29.25,WSW,240,4.0,15.0,75,0.00,,,0.00,WUHU216DAVISVP2,2013-07-06 18:20:00,
2013-07-06 14:24:00,75.6,67.3,29.25,South,183,7.0,15.0,75,0.00,,,0.00,WUHU216DAVISVP2,2013-07-06 18:24:00,
2013-07-06 14:25:00,75.6,67.3,29.25,SW,220,0.0,15.0,75,0.00,,,0.00,WUHU216DAVISVP2,2013-07-06 18:25:00,
2013-07-06 14:30:00,75.5,67.2,29.25,SW,228,1.0,13.0,75,0.00,,,0.00,WUHU216DAVISVP2,2013-07-06 18:30:00,
2013-07-06 14:35:00,75.5,67.2,29.24,SW,215,4.0,13.0,75,0.00,,,0.00,WUHU216DAVISVP2,2013-07-06 18:35:00,
2013-07-06 14:36:00,75.5,67.2,29.24,SSW,205,2.0,13.0,75,0.00,,,0.00,WUHU216DAVISVP2,2013-07-06 18:36:00,
2013-07-06 14:40:00,75.6,67.6,29.23,South,169,3.0,13.0,76,0.00,,,0.00,WUHU216DAVISVP2,2013-07-06 18:40:00,
2013-07-06 14:41:00,75.7,67.7,29.23,SSE,153,1.0,13.0,76,0.00,,,0.00,WUHU216DAVISVP2,2013-07-06 18:41:00,
2013-07-06 14:42:00,75.7,67.7,29.23,SSW,194,5.0,13.0,76,0.00,,,0.00,WUHU216DAVISVP2,2013-07-06 18:42:00,
2013-07-06 14:46:00,75.8,67.5,29.23,SE,137,1.0,10.0,75,0.00,,,0.00,WUHU216DAVISVP2,2013-07-06 18:46:00,
2013-07-06 14:47:00,75.9,67.2,29.23,SSE,162,3.0,10.0,74,0.00,,,0.00,WUHU216DAVISVP2,2013-07-06 18:47:00,
2013-07-06 14:52:00,76.1,67.8,29.24,SW,222,1.0,8.0,75,0.00,,,0.00,WUHU216DAVISVP2,2013-07-06 18:52:00,
2013-07-06 14:53:00,76.2,68.2,29.23,SW,221,0.0,8.0,76,0.00,,,0.00,WUHU216DAVISVP2,2013-07-06 18:53:00,
2013-07-06 14:54:00,76.2,67.9,29.23,SE,143,0.0,8.0,75,0.00,,,0.00,WUHU216DAVISVP2,2013-07-06 18:54:00,
2013-07-06 14:57:00,76.2,67.5,29.24,SSE,153,1.0,9.0,74,0.00,,,0.00,WUHU216DAVISVP2,2013-07-06 18:57:00,
2013-07-06 14:58:00,76.2,67.5,29.24,SSE,153,1.0,9.0,74,0.00,,,0.00,WUHU216DAVISVP2,2013-07-06 18:58:00,
2013-07-06 15:02:00,76.1,67.8,29.24,SSE,158,3.0,9.0,75,0.00,,,0.00,WUHU216DAVISVP2,2013-07-06 19:02:00,
2013-07-06 15:03:00,76.1,67.8,29.23,SSE,158,5.0,9.0,75,0.00,,,0.00,WUHU216DAVISVP2,2013-07-06 19:03:00,
2013-07-06 15:05:00,75.9,67.9,29.23,South,169,4.0,9.0,76,0.00,,,0.00,WUHU216DAVISVP2,2013-07-06 19:05:00,
2013-07-06 15:08:00,75.8,68.6,29.23,ESE,104,6.0,9.0,78,0.00,,,0.00,WUHU216DAVISVP2,2013-07-06 19:08:00,
2013-07-06 15:10:00,75.8,68.2,29.23,East,93,1.0,9.0,77,0.00,,,0.00,WUHU216DAVISVP2,2013-07-06 19:10:00,
2013-07-06 15:13:00,75.9,68.3,29.23,ESE,103,0.0,9.0,77,0.00,,,0.00,WUHU216DAVISVP2,2013-07-06 19:13:00,
2013-07-06 15:16:00,76.2,69.0,29.22,SSW,204,1.0,6.0,78,0.00,,,0.00,WUHU216DAVISVP2,2013-07-06 19:16:00,
2013-07-06 15:19:00,76.2,68.2,29.22,SSW,204,2.0,6.0,76,0.00,,,0.00,WUHU216DAVISVP2,2013-07-06 19:19:00,
2013-07-06 15:21:00,76.3,68.3,29.22,SW,226,2.0,6.0,76,0.00,,,0.00,WUHU216DAVISVP2,2013-07-06 19:21:00,
2013-07-06 15:24:00,76.4,68.4,29.23,SW,228,1.0,6.0,76,0.00,,,0.00,WUHU216DAVISVP2,2013-07-06 19:24:00,
2013-07-06 15:25:00,76.5,68.5,29.22,West,259,2.0,6.0,76,0.00,,,0.00,WUHU216DAVISVP2,2013-07-06 19:25:00,
2013-07-06 15:27:00,76.4,67.5,29.23,West,278,0.0,6.0,74,0.00,,,0.00,WUHU216DAVISVP2,2013-07-06 19:27:00,
2013-07-06 15:30:00,76.5,67.8,29.23,West,278,1.0,5.0,74,0.00,,,0.00,WUHU216DAVISVP2,2013-07-06 19:30:00,
2013-07-06 15:31:00,76.5,68.1,29.23,West,278,0.0,5.0,75,0.00,,,0.00,WUHU216DAVISVP2,2013-07-06 19:31:00,
2013-07-06 15:32:00,76.5,68.1,29.23,West,278,2.0,5.0,75,0.00,,,0.00,WUHU216DAVISVP2,2013-07-06 19:32:00,
2013-07-06 15:36:00,76.5,67.8,29.23,West,278,0.0,4.0,74,0.00,,,0.00,WUHU216DAVISVP2,2013-07-06 19:36:00,
2013-07-06 15:39:00,76.6,68.2,29.23,West,278,0.0,4.0,75,0.00,,,0.00,WUHU216DAVISVP2,2013-07-06 19:39:00,
2013-07-06 15:41:00,76.7,68.7,29.23,West,278,0.0,4.0,76,0.00,,,0.00,WUHU216DAVISVP2,2013-07-06 19:41:00,
2013-07-06 15:42:00,76.7,68.7,29.23,West,278,1.0,4.0,76,0.00,,,0.00,WUHU216DAVISVP2,2013-07-06 19:42:00,
2013-07-06 15:44:00,76.7,68.7,29.24,West,278,2.0,4.0,76,0.00,,,0.00,WUHU216DAVISVP2,2013-07-06 19:44:00,
2013-07-06 15:46:00,76.5,69.3,29.24,NW,305,3.0,4.0,78,0.00,,,0.00,WUHU216DAVISVP2,2013-07-06 19:46:00,
2013-07-06 15:47:00,76.3,69.4,29.23,NNW,343,4.0,5.0,79,0.00,,,0.00,WUHU216DAVISVP2,2013-07-06 19:47:00,
2013-07-06 15:50:00,76.0,69.5,29.23,NNW,345,0.0,5.0,80,0.00,,,0.00,WUHU216DAVISVP2,2013-07-06 19:50:00,
2013-07-06 15:52:00,75.9,69.4,29.23,North,8,6.0,7.0,80,0.00,,,0.00,WUHU216DAVISVP2,2013-07-06 19:52:00,
2013-07-06 15:57:00,75.0,69.2,29.23,North,4,5.0,8.0,82,0.00,,,0.00,WUHU216DAVISVP2,2013-07-06 19:57:00,
2013-07-06 15:58:00,75.0,69.2,29.23,NNW,341,5.0,8.0,82,0.00,,,0.00,WUHU216DAVISVP2,2013-07-06 19:58:00,
2013-07-06 16:00:00,74.5,69.1,29.23,NNW,345,7.0,10.0,83,0.00,,,0.00,WUHU216DAVISVP2,2013-07-06 20:00:00,
2013-07-06 16:02:00,74.2,69.1,29.23,NNW,337,4.0,10.0,84,0.00,,,0.00,WUHU216DAVISVP2,2013-07-06 20:02:00,
2013-07-06 16:03:00,74.1,69.3,29.23,NNE,12,6.0,10.0,85,0.00,,,0.00,WUHU216DAVISVP2,2013-07-06 20:03:00,
2013-07-06 16:06:00,73.9,69.1,29.23,NE,43,5.0,10.0,85,0.00,,,0.00,WUHU216DAVISVP2,2013-07-06 20:06:00,
2013-07-06 16:08:00,73.8,69.0,29.22,NE,50,5.0,10.0,85,0.00,,,0.00,WUHU216DAVISVP2,2013-07-06 20:08:00,
2013-07-06 16:12:00,73.6,68.8,29.23,North,9,7.0,10.0,85,0.00,,,0.00,WUHU216DAVISVP2,2013-07-06 20:12:00,
2013-07-06 16:14:00,73.5,68.7,29.23,NNW,343,6.0,10.0,85,0.00,,,0.00,WUHU216DAVISVP2,2013-07-06 20:14:00,
2013-07-06 16:17:00,73.4,69.0,29.23,North,10,4.0,10.0,86,0.00,,,0.00,WUHU216DAVISVP2,2013-07-06 20:17:00,
2013-07-06 16:19:00,73.4,68.6,29.23,NNW,336,6.0,10.0,85,0.00,,,0.00,WUHU216DAVISVP2,2013-07-06 20:19:00,
2013-07-06 16:21:00,73.4,68.6,29.23,NNW,336,6.0,10.0,85,0.00,,,0.00,WUHU216DAVISVP2,2013-07-06 20:21:00,
2013-07-06 16:23:00,73.3,68.6,29.22,NNE,12,7.0,10.0,85,0.00,,,0.00,WUHU216DAVISVP2,2013-07-06 20:23:00,
2013-07-06 16:24:00,73.3,68.6,29.22,North,4,5.0,10.0,85,0.00,,,0.00,WUHU216DAVISVP2,2013-07-06 20:24:00,
2013-07-06 16:27:00,73.3,68.6,29.22,NNW,345,6.0,10.0,85,0.00,,,0.00,WUHU216DAVISVP2,2013-07-06 20:27:00,
2013-07-06 16:28:00,73.3,68.6,29.22,NNW,337,4.0,9.0,85,0.00,,,0.00,WUHU216DAVISVP2,2013-07-06 20:28:00,
2013-07-06 16:32:00,73.3,68.9,29.21,NNE,18,5.0,8.0,86,0.00,,,0.00,WUHU216DAVISVP2,2013-07-06 20:32:00,
2013-07-06 16:33:00,73.4,68.6,29.22,NNE,18,5.0,8.0,85,0.00,,,0.00,WUHU216DAVISVP2,2013-07-06 20:33:00,
2013-07-06 16:37:00,73.5,68.7,29.22,NNE,18,3.0,8.0,85,0.00,,,0.00,WUHU216DAVISVP2,2013-07-06 20:37:00,
2013-07-06 16:41:00,73.4,68.6,29.22,NNE,18,4.0,8.0,85,0.00,,,0.00,WUHU216DAVISVP2,2013-07-06 20:41:00,
2013-07-06 16:42:00,73.5,68.7,29.22,NNE,18,4.0,8.0,85,0.00,,,0.00,WUHU216DAVISVP2,2013-07-06 20:42:00,
2013-07-06 16:43:00,73.5,68.7,29.22,NNE,18,1.0,7.0,85,0.00,,,0.00,WUHU216DAVISVP2,2013-07-06 20:43:00,
2013-07-06 16:46:00,73.5,68.7,29.21,NNE,18,2.0,7.0,85,0.00,,,0.00,WUHU216DAVISVP2,2013-07-06 20:46:00,
2013-07-06 16:47:00,73.5,68.7,29.21,NNE,18,2.0,7.0,85,0.00,,,0.00,WUHU216DAVISVP2,2013-07-06 20:47:00,
2013-07-06 16:51:00,73.5,69.1,29.22,NNE,18,1.0,5.0,86,0.00,,,0.00,WUHU216DAVISVP2,2013-07-06 20:51:00,
2013-07-06 16:52:00,73.5,69.1,29.21,NNE,18,0.0,5.0,86,0.00,,,0.00,WUHU216DAVISVP2,2013-07-06 20:52:00,
2013-07-06 16:54:00,73.6,69.2,29.21,NNE,18,2.0,5.0,86,0.00,,,0.00,WUHU216DAVISVP2,2013-07-06 20:54:00,
2013-07-06 16:57:00,73.5,69.1,29.22,NNE,18,2.0,5.0,86,0.00,,,0.00,WUHU216DAVISVP2,2013-07-06 20:57:00,
2013-07-06 16:59:00,73.5,69.1,29.22,NNE,18,2.0,5.0,86,0.00,,,0.00,WUHU216DAVISVP2,2013-07-06 20:59:00,
2013-07-06 17:00:00,73.5,69.4,29.22,NNE,18,1.0,5.0,87,0.00,,,0.00,WUHU216DAVISVP2,2013-07-06 21:00:00,
2013-07-06 17:02:00,73.4,69.3,29.21,NNE,18,0.0,5.0,87,0.00,,,0.00,WUHU216DAVISVP2,2013-07-06 21:02:00,
2013-07-06 17:04:00,73.4,69.3,29.21,NNE,18,0.0,5.0,87,0.00,,,0.00,WUHU216DAVISVP2,2013-07-06 21:04:00,
2013-07-06 17:06:00,73.4,69.3,29.21,NNE,18,0.0,5.0,87,0.00,,,0.00,WUHU216DAVISVP2,2013-07-06 21:06:00,
2013-07-06 17:07:00,73.3,69.2,29.22,NNE,18,0.0,5.0,87,0.00,,,0.00,WUHU216DAVISVP2,2013-07-06 21:07:00,
2013-07-06 17:10:00,73.4,69.3,29.21,NNE,18,0.0,5.0,87,0.00,,,0.00,WUHU216DAVISVP2,2013-07-06 21:10:00,
2013-07-06 17:12:00,73.4,69.3,29.21,NNE,18,0.0,5.0,87,0.00,,,0.00,WUHU216DAVISVP2,2013-07-06 21:12:00,
2013-07-06 17:13:00,73.4,69.3,29.22,NNE,18,0.0,5.0,87,0.00,,,0.00,WUHU216DAVISVP2,2013-07-06 21:13:00,
2013-07-06 17:15:00,73.5,69.7,29.22,NNE,18,0.0,4.0,88,0.00,,,0.00,WUHU216DAVISVP2,2013-07-06 21:15:00,
2013-07-06 17:18:00,73.5,69.4,29.22,South,183,3.0,4.0,87,0.00,,,0.00,WUHU216DAVISVP2,2013-07-06 21:18:00,
2013-07-06 17:23:00,73.4,69.6,29.21,WSW,241,4.0,8.0,88,0.00,,,0.00,WUHU216DAVISVP2,2013-07-06 21:23:00,
2013-07-06 17:24:00,73.4,69.6,29.22,SW,236,2.0,8.0,88,0.00,,,0.00,WUHU216DAVISVP2,2013-07-06 21:24:00,
2013-07-06 17:25:00,73.4,69.6,29.22,SW,235,2.0,8.0,88,0.00,,,0.00,WUHU216DAVISVP2,2013-07-06 21:25:00,
2013-07-06 17:29:00,73.2,69.4,29.22,WSW,250,2.0,8.0,88,0.00,,,0.00,WUHU216DAVISVP2,2013-07-06 21:29:00,
2013-07-06 17:30:00,73.2,69.4,29.22,WSW,250,0.0,8.0,88,0.00,,,0.00,WUHU216DAVISVP2,2013-07-06 21:30:00,
2013-07-06 17:31:00,73.1,69.3,29.22,WSW,250,1.0,8.0,88,0.00,,,0.00,WUHU216DAVISVP2,2013-07-06 21:31:00,
2013-07-06 17:34:00,73.0,69.6,29.22,WSW,250,1.0,8.0,89,0.00,,,0.00,WUHU216DAVISVP2,2013-07-06 21:34:00,
2013-07-06 17:36:00,72.9,69.5,29.22,WSW,245,1.0,8.0,89,0.00,,,0.00,WUHU216DAVISVP2,2013-07-06 21:36:00,
2013-07-06 17:37:00,72.9,69.5,29.21,WSW,245,0.0,8.0,89,0.00,,,0.00,WUHU216DAVISVP2,2013-07-06 21:37:00,
2013-07-06 17:39:00,72.8,69.4,29.21,East,83,2.0,7.0,89,0.00,,,0.00,WUHU216DAVISVP2,2013-07-06 21:39:00,
2013-07-06 17:42:00,72.7,69.6,29.20,East,84,2.0,7.0,90,0.00,,,0.00,WUHU216DAVISVP2,2013-07-06 21:42:00,
2013-07-06 17:45:00,72.6,69.5,29.20,East,83,0.0,4.0,90,0.00,,,0.00,WUHU216DAVISVP2,2013-07-06 21:45:00,
2013-07-06 17:48:00,72.7,69.9,29.20,East,83,0.0,4.0,91,0.00,,,0.00,WUHU216DAVISVP2,2013-07-06 21:48:00,
2013-07-06 17:50:00,72.7,69.9,29.21,East,83,0.0,4.0,91,0.00,,,0.00,WUHU216DAVISVP2,2013-07-06 21:50:00,
2013-07-06 17:53:00,72.9,70.1,29.21,East,83,0.0,4.0,91,0.00,,,0.00,WUHU216DAVISVP2,2013-07-06 21:53:00,
2013-07-06 17:56:00,73.0,70.2,29.21,East,84,0.0,4.0,91,0.00,,,0.00,WUHU216DAVISVP2,2013-07-06 21:56:00,
2013-07-06 17:59:00,73.1,70.0,29.21,East,83,1.0,4.0,90,0.00,,,0.00,WUHU216DAVISVP2,2013-07-06 21:59:00,
2013-07-06 18:01:00,73.2,70.4,29.20,East,83,1.0,2.0,91,0.00,,,0.00,WUHU216DAVISVP2,2013-07-06 22:01:00,
2013-07-06 18:05:00,73.5,70.7,29.20,East,83,1.0,4.0,91,0.00,,,0.00,WUHU216DAVISVP2,2013-07-06 22:05:00,
2013-07-06 18:07:00,73.4,70.6,29.20,East,84,2.0,4.0,91,0.00,,,0.00,WUHU216DAVISVP2,2013-07-06 22:07:00,
2013-07-06 18:10:00,73.4,70.6,29.20,East,84,2.0,4.0,91,0.00,,,0.00,WUHU216DAVISVP2,2013-07-06 22:10:00,
2013-07-06 18:13:00,73.4,70.6,29.20,East,84,1.0,4.0,91,0.00,,,0.00,WUHU216DAVISVP2,2013-07-06 22:13:00,
2013-07-06 18:16:00,73.3,70.5,29.20,East,99,4.0,5.0,91,0.00,,,0.00,WUHU216DAVISVP2,2013-07-06 22:16:00,
2013-07-06 18:19:00,73.1,70.0,29.20,East,101,2.0,5.0,90,0.00,,,0.00,WUHU216DAVISVP2,2013-07-06 22:19:00,
2013-07-06 18:23:00,73.2,70.4,29.20,East,101,0.0,5.0,91,0.00,,,0.00,WUHU216DAVISVP2,2013-07-06 22:23:00,
2013-07-06 18:24:00,73.2,70.4,29.20,East,101,0.0,5.0,91,0.00,,,0.00,WUHU216DAVISVP2,2013-07-06 22:24:00,
2013-07-06 18:29:00,73.3,70.5,29.20,WSW,243,4.0,5.0,91,0.00,,,0.00,WUHU216DAVISVP2,2013-07-06 22:29:00,
2013-07-06 18:31:00,73.2,70.1,29.20,WSW,258,4.0,7.0,90,0.00,,,0.00,WUHU216DAVISVP2,2013-07-06 22:31:00,
2013-07-06 18:34:00,73.5,69.4,29.20,WSW,239,14.0,14.0,87,0.00,,,0.00,WUHU216DAVISVP2,2013-07-06 22:34:00,
2013-07-06 18:35:00,73.5,69.4,29.20,WSW,241,15.0,18.0,87,0.00,,,0.00,WUHU216DAVISVP2,2013-07-06 22:35:00,
2013-07-06 18:36:00,73.6,69.2,29.20,WSW,251,8.0,18.0,86,0.00,,,0.00,WUHU216DAVISVP2,2013-07-06 22:36:00,
2013-07-06 18:40:00,73.9,69.1,29.20,West,261,6.0,18.0,85,0.00,,,0.00,WUHU216DAVISVP2,2013-07-06 22:40:00,
2013-07-06 18:41:00,73.9,69.1,29.20,WNW,300,8.0,18.0,85,0.00,,,0.00,WUHU216DAVISVP2,2013-07-06 22:41:00,
2013-07-06 18:46:00,74.1,69.0,29.20,West,270,5.0,18.0,84,0.00,,,0.00,WUHU216DAVISVP2,2013-07-06 22:46:00,
2013-07-06 18:52:00,74.0,68.6,29.20,WNW,287,7.0,18.0,83,0.00,,,0.00,WUHU216DAVISVP2,2013-07-06 22:52:00,
2013-07-06 18:53:00,74.0,68.6,29.20,West,274,5.0,18.0,83,0.00,,,0.00,WUHU216DAVISVP2,2013-07-06 22:53:00,
2013-07-06 18:57:00,74.0,68.6,29.20,WSW,256,7.0,12.0,83,0.00,,,0.00,WUHU216DAVISVP2,2013-07-06 22:57:00,
2013-07-06 18:58:00,74.0,68.6,29.20,WSW,247,2.0,12.0,83,0.00,,,0.00,WUHU216DAVISVP2,2013-07-06 22:58:00,
2013-07-06 19:00:00,74.0,68.6,29.20,West,262,4.0,12.0,83,0.00,,,0.00,WUHU216DAVISVP2,2013-07-06 23:00:00,
2013-07-06 19:03:00,74.0,68.6,29.20,West,264,0.0,12.0,83,0.00,,,0.00,WUHU216DAVISVP2,2013-07-06 23:03:00,
2013-07-06 19:06:00,74.0,68.6,29.20,West,276,4.0,12.0,83,0.00,,,0.00,WUHU216DAVISVP2,2013-07-06 23:06:00,
2013-07-06 19:09:00,74.0,68.6,29.20,WSW,254,7.0,11.0,83,0.00,,,0.00,WUHU216DAVISVP2,2013-07-06 23:09:00,
2013-07-06 19:11:00,74.0,68.6,29.20,West,266,6.0,11.0,83,0.00,,,0.00,WUHU216DAVISVP2,2013-07-06 23:11:00,
2013-07-06 19:14:00,74.0,68.6,29.20,WSW,253,4.0,10.0,83,0.00,,,0.00,WUHU216DAVISVP2,2013-07-06 23:14:00,
2013-07-06 19:17:00,73.9,68.5,29.19,SW,228,3.0,10.0,83,0.00,,,0.00,WUHU216DAVISVP2,2013-07-06 23:17:00,
2013-07-06 19:19:00,73.9,68.5,29.20,West,264,5.0,10.0,83,0.00,,,0.00,WUHU216DAVISVP2,2013-07-06 23:19:00,
2013-07-06 19:22:00,73.8,68.4,29.20,NW,308,9.0,10.0,83,0.00,,,0.00,WUHU216DAVISVP2,2013-07-06 23:22:00,
2013-07-06 19:24:00,73.8,68.4,29.19,West,281,5.0,10.0,83,0.00,,,0.00,WUHU216DAVISVP2,2013-07-06 23:24:00,
2013-07-06 19:25:00,73.8,68.4,29.19,West,259,7.0,10.0,83,0.00,,,0.00,WUHU216DAVISVP2,2013-07-06 23:25:00,
2013-07-06 19:28:00,73.7,68.3,29.19,West,268,8.0,10.0,83,0.00,,,0.00,WUHU216DAVISVP2,2013-07-06 23:28:00,
2013-07-06 19:29:00,73.7,68.3,29.19,WNW,287,2.0,10.0,83,0.00,,,0.00,WUHU216DAVISVP2,2013-07-06 23:29:00,
2013-07-06 19:31:00,73.7,68.3,29.19,West,268,8.0,10.0,83,0.00,,,0.00,WUHU216DAVISVP2,2013-07-06 23:31:00,
2013-07-06 19:33:00,73.6,68.2,29.19,West,270,2.0,10.0,83,0.00,,,0.00,WUHU216DAVISVP2,2013-07-06 23:33:00,
2013-07-06 19:35:00,73.6,68.2,29.19,West,270,2.0,10.0,83,0.00,,,0.00,WUHU216DAVISVP2,2013-07-06 23:35:00,
2013-07-06 19:37:00,73.6,68.2,29.20,WSW,252,8.0,11.0,83,0.00,,,0.00,WUHU216DAVISVP2,2013-07-06 23:37:00,
2013-07-06 19:42:00,73.6,68.1,29.20,WNW,283,5.0,11.0,83,0.00,,,0.00,WUHU216DAVISVP2,2013-07-06 23:42:00,
2013-07-06 19:47:00,73.6,68.5,29.20,WNW,282,2.0,11.0,84,0.00,,,0.00,WUHU216DAVISVP2,2013-07-06 23:47:00,
2013-07-06 19:48:00,73.6,68.5,29.20,WNW,282,2.0,11.0,84,0.00,,,0.00,WUHU216DAVISVP2,2013-07-06 23:48:00,
2013-07-06 19:49:00,73.6,68.5,29.19,WNW,282,2.0,11.0,84,0.00,,,0.00,WUHU216DAVISVP2,2013-07-06 23:49:00,
2013-07-06 19:52:00,73.6,68.5,29.20,WNW,282,6.0,11.0,84,0.00,,,0.00,WUHU216DAVISVP2,2013-07-06 23:52:00,
2013-07-06 19:53:00,73.6,68.5,29.20,WNW,282,4.0,8.0,84,0.00,,,0.00,WUHU216DAVISVP2,2013-07-06 23:53:00,
2013-07-06 19:57:00,73.5,68.4,29.20,West,272,5.0,8.0,84,0.00,,,0.00,WUHU216DAVISVP2,2013-07-06 23:57:00,
2013-07-06 19:59:00,73.5,68.4,29.20,WNW,283,1.0,8.0,84,0.00,,,0.00,WUHU216DAVISVP2,2013-07-06 23:59:00,
2013-07-06 20:02:00,73.5,68.4,29.20,West,267,6.0,8.0,84,0.00,,,0.00,WUHU216DAVISVP2,2013-07-07 00:02:00,
2013-07-06 20:03:00,73.5,68.4,29.20,WSW,256,5.0,8.0,84,0.00,,,0.00,WUHU216DAVISVP2,2013-07-07 00:03:00,
2013-07-06 20:05:00,73.4,68.3,29.20,West,267,5.0,8.0,84,0.00,,,0.00,WUHU216DAVISVP2,2013-07-07 00:05:00,
2013-07-06 20:08:00,73.3,68.2,29.20,West,279,4.0,8.0,84,0.00,,,0.00,WUHU216DAVISVP2,2013-07-07 00:08:00,
2013-07-06 20:10:00,73.3,68.6,29.20,West,266,4.0,8.0,85,0.00,,,0.00,WUHU216DAVISVP2,2013-07-07 00:10:00,
2013-07-06 20:14:00,73.3,68.6,29.20,West,274,6.0,8.0,85,0.00,,,0.00,WUHU216DAVISVP2,2013-07-07 00:14:00,
2013-07-06 20:15:00,73.2,68.5,29.21,West,272,4.0,8.0,85,0.00,,,0.00,WUHU216DAVISVP2,2013-07-07 00:15:00,
2013-07-06 20:19:00,73.2,68.5,29.21,West,277,6.0,8.0,85,0.00,,,0.00,WUHU216DAVISVP2,2013-07-07 00:19:00,
2013-07-06 20:22:00,73.1,68.4,29.20,West,260,7.0,9.0,85,0.00,,,0.00,WUHU216DAVISVP2,2013-07-07 00:22:00,
2013-07-06 20:24:00,73.1,68.4,29.20,WSW,253,4.0,10.0,85,0.00,,,0.00,WUHU216DAVISVP2,2013-07-07 00:24:00,
2013-07-06 20:28:00,73.1,68.4,29.20,West,275,5.0,10.0,85,0.00,,,0.00,WUHU216DAVISVP2,2013-07-07 00:28:00,
2013-07-06 20:29:00,73.0,68.6,29.20,West,274,1.0,10.0,86,0.00,,,0.00,WUHU216DAVISVP2,2013-07-07 00:29:00,
2013-07-06 20:30:00,73.0,68.3,29.20,West,274,1.0,10.0,85,0.00,,,0.00,WUHU216DAVISVP2,2013-07-07 00:30:00,
2013-07-06 20:33:00,73.0,68.3,29.20,West,274,2.0,10.0,85,0.00,,,0.00,WUHU216DAVISVP2,2013-07-07 00:33:00,
2013-07-06 20:34:00,73.0,68.3,29.20,West,274,5.0,10.0,85,0.00,,,0.00,WUHU216DAVISVP2,2013-07-07 00:34:00,
2013-07-06 20:35:00,73.0,68.3,29.21,West,274,5.0,10.0,85,0.00,,,0.00,WUHU216DAVISVP2,2013-07-07 00:35:00,
2013-07-06 20:38:00,73.0,68.3,29.20,West,273,0.0,10.0,85,0.00,,,0.00,WUHU216DAVISVP2,2013-07-07 00:38:00,
2013-07-06 20:40:00,73.0,68.6,29.20,West,273,1.0,10.0,86,0.00,,,0.00,WUHU216DAVISVP2,2013-07-07 00:40:00,
2013-07-06 20:44:00,72.9,68.5,29.20,West,272,2.0,7.0,86,0.00,,,0.00,WUHU216DAVISVP2,2013-07-07 00:44:00,
2013-07-06 20:45:00,72.9,68.5,29.20,West,272,5.0,7.0,86,0.00,,,0.00,WUHU216DAVISVP2,2013-07-07 00:45:00,
2013-07-06 20:46:00,72.9,68.5,29.20,West,272,2.0,7.0,86,0.00,,,0.00,WUHU216DAVISVP2,2013-07-07 00:46:00,
2013-07-06 20:51:00,72.8,68.4,29.20,West,272,0.0,7.0,86,0.00,,,0.00,WUHU216DAVISVP2,2013-07-07 00:51:00,
2013-07-06 20:57:00,72.8,68.4,29.20,West,272,4.0,7.0,86,0.00,,,0.00,WUHU216DAVISVP2,2013-07-07 00:57:00,
2013-07-06 20:58:00,72.7,68.3,29.20,NW,307,0.0,7.0,86,0.00,,,0.00,WUHU216DAVISVP2,2013-07-07 00:58:00,
2013-07-06 21:02:00,72.7,68.3,29.21,NW,304,6.0,7.0,86,0.00,,,0.00,WUHU216DAVISVP2,2013-07-07 01:02:00,
2013-07-06 21:04:00,72.6,68.2,29.21,NW,304,2.0,8.0,86,0.00,,,0.00,WUHU216DAVISVP2,2013-07-07 01:04:00,
2013-07-06 21:07:00,72.6,68.5,29.21,West,266,9.0,9.0,87,0.00,,,0.00,WUHU216DAVISVP2,2013-07-07 01:07:00,
2013-07-06 21:08:00,72.6,68.5,29.21,West,265,2.0,9.0,87,0.00,,,0.00,WUHU216DAVISVP2,2013-07-07 01:08:00,
2013-07-06 21:09:00,72.6,68.5,29.21,West,265,1.0,9.0,87,0.00,,,0.00,WUHU216DAVISVP2,2013-07-07 01:09:00,
2013-07-06 21:12:00,72.6,68.5,29.21,West,274,6.0,9.0,87,0.00,,,0.00,WUHU216DAVISVP2,2013-07-07 01:12:00,
2013-07-06 21:13:00,72.6,68.5,29.21,West,274,4.0,9.0,87,0.00,,,0.00,WUHU216DAVISVP2,2013-07-07 01:13:00,
2013-07-06 21:15:00,72.6,68.5,29.21,West,275,5.0,9.0,87,0.00,,,0.00,WUHU216DAVISVP2,2013-07-07 01:15:00,
2013-07-06 21:19:00,72.5,68.4,29.21,West,275,2.0,9.0,87,0.00,,,0.00,WUHU216DAVISVP2,2013-07-07 01:19:00,
2013-07-06 21:21:00,72.5,68.4,29.21,West,275,1.0,9.0,87,0.00,,,0.00,WUHU216DAVISVP2,2013-07-07 01:21:00,
2013-07-06 21:24:00,72.5,68.4,29.21,West,275,2.0,9.0,87,0.00,,,0.00,WUHU216DAVISVP2,2013-07-07 01:24:00,
2013-07-06 21:25:00,72.4,68.3,29.21,West,274,4.0,9.0,87,0.00,,,0.00,WUHU216DAVISVP2,2013-07-07 01:25:00,
2013-07-06 21:26:00,72.4,68.3,29.21,West,275,2.0,8.0,87,0.00,,,0.00,WUHU216DAVISVP2,2013-07-07 01:26:00,
2013-07-06 21:30:00,72.4,68.3,29.21,West,274,4.0,8.0,87,0.00,,,0.00,WUHU216DAVISVP2,2013-07-07 01:30:00,
2013-07-06 21:31:00,72.4,68.3,29.21,West,275,0.0,7.0,87,0.00,,,0.00,WUHU216DAVISVP2,2013-07-07 01:31:00,
2013-07-06 21:32:00,72.4,68.3,29.21,West,275,1.0,7.0,87,0.00,,,0.00,WUHU216DAVISVP2,2013-07-07 01:32:00,
2013-07-06 21:37:00,72.3,68.2,29.21,SW,221,1.0,9.0,87,0.00,,,0.00,WUHU216DAVISVP2,2013-07-07 01:37:00,
2013-07-06 21:38:00,72.2,68.1,29.21,SW,221,1.0,9.0,87,0.00,,,0.00,WUHU216DAVISVP2,2013-07-07 01:38:00,
2013-07-06 21:42:00,72.2,68.1,29.21,WSW,258,5.0,9.0,87,0.00,,,0.00,WUHU216DAVISVP2,2013-07-07 01:42:00,
2013-07-06 21:44:00,72.2,68.1,29.21,WSW,257,5.0,9.0,87,0.00,,,0.00,WUHU216DAVISVP2,2013-07-07 01:44:00,
2013-07-06 21:48:00,72.2,68.1,29.22,WSW,251,4.0,9.0,87,0.00,,,0.00,WUHU216DAVISVP2,2013-07-07 01:48:00,
2013-07-06 21:49:00,72.2,68.1,29.22,WSW,251,5.0,9.0,87,0.00,,,0.00,WUHU216DAVISVP2,2013-07-07 01:49:00,
2013-07-06 21:53:00,72.2,68.1,29.22,West,267,6.0,9.0,87,0.00,,,0.00,WUHU216DAVISVP2,2013-07-07 01:53:00,
2013-07-06 21:54:00,72.2,68.1,29.22,West,265,1.0,9.0,87,0.00,,,0.00,WUHU216DAVISVP2,2013-07-07 01:54:00,
2013-07-06 21:56:00,72.2,68.1,29.23,West,265,0.0,9.0,87,0.00,,,0.00,WUHU216DAVISVP2,2013-07-07 01:56:00,
2013-07-06 21:58:00,72.2,68.1,29.22,WNW,288,2.0,9.0,87,0.00,,,0.00,WUHU216DAVISVP2,2013-07-07 01:58:00,
2013-07-06 21:59:00,72.2,68.1,29.22,WNW,288,0.0,9.0,87,0.00,,,0.00,WUHU216DAVISVP2,2013-07-07 01:59:00,
2013-07-06 22:01:00,72.2,68.1,29.22,WNW,286,5.0,9.0,87,0.00,,,0.00,WUHU216DAVISVP2,2013-07-07 02:01:00,
2013-07-06 22:04:00,72.2,68.1,29.22,WNW,286,0.0,9.0,87,0.00,,,0.00,WUHU216DAVISVP2,2013-07-07 02:04:00,
2013-07-06 22:05:00,72.2,68.1,29.22,WNW,286,1.0,9.0,87,0.00,,,0.00,WUHU216DAVISVP2,2013-07-07 02:05:00,
2013-07-06 22:07:00,72.1,68.4,29.23,WSW,254,1.0,9.0,88,0.00,,,0.00,WUHU216DAVISVP2,2013-07-07 02:07:00,
2013-07-06 22:09:00,72.1,68.4,29.23,West,263,8.0,9.0,88,0.00,,,0.00,WUHU216DAVISVP2,2013-07-07 02:09:00,
2013-07-06 22:10:00,72.1,68.4,29.23,WSW,257,7.0,9.0,88,0.00,,,0.00,WUHU216DAVISVP2,2013-07-07 02:10:00,
2013-07-06 22:12:00,72.1,68.4,29.23,West,263,5.0,9.0,88,0.00,,,0.00,WUHU216DAVISVP2,2013-07-07 02:12:00,
2013-07-06 22:15:00,72.0,68.3,29.24,West,273,6.0,9.0,88,0.00,,,0.00,WUHU216DAVISVP2,2013-07-07 02:15:00,
2013-07-06 22:16:00,72.0,68.3,29.23,West,262,7.0,10.0,88,0.00,,,0.00,WUHU216DAVISVP2,2013-07-07 02:16:00,
2013-07-06 22:18:00,72.0,68.3,29.23,West,274,5.0,10.0,88,0.00,,,0.00,WUHU216DAVISVP2,2013-07-07 02:18:00,
2013-07-06 22:21:00,71.9,68.2,29.23,West,274,2.0,10.0,88,0.00,,,0.00,WUHU216DAVISVP2,2013-07-07 02:21:00,
2013-07-06 22:22:00,71.9,68.2,29.23,West,274,1.0,10.0,88,0.00,,,0.00,WUHU216DAVISVP2,2013-07-07 02:22:00,
2013-07-06 22:23:00,71.9,68.2,29.23,West,272,5.0,10.0,88,0.00,,,0.00,WUHU216DAVISVP2,2013-07-07 02:23:00,
2013-07-06 22:27:00,71.8,68.1,29.23,West,272,0.0,10.0,88,0.00,,,0.00,WUHU216DAVISVP2,2013-07-07 02:27:00,
2013-07-06 22:28:00,71.8,68.1,29.23,West,272,0.0,10.0,88,0.00,,,0.00,WUHU216DAVISVP2,2013-07-07 02:28:00,
2013-07-06 22:29:00,71.7,68.0,29.23,West,272,1.0,10.0,88,0.00,,,0.00,WUHU216DAVISVP2,2013-07-07 02:29:00,
2013-07-06 22:32:00,71.7,68.0,29.24,SW,235,2.0,10.0,88,0.00,,,0.00,WUHU216DAVISVP2,2013-07-07 02:32:00,
2013-07-06 22:33:00,71.6,67.9,29.23,SW,232,5.0,10.0,88,0.00,,,0.00,WUHU216DAVISVP2,2013-07-07 02:33:00,
2013-07-06 22:35:00,71.6,67.9,29.23,SW,229,1.0,9.0,88,0.00,,,0.00,WUHU216DAVISVP2,2013-07-07 02:35:00,
2013-07-06 22:38:00,71.6,67.9,29.23,SW,229,1.0,9.0,88,0.00,,,0.00,WUHU216DAVISVP2,2013-07-07 02:38:00,
2013-07-06 22:39:00,71.6,67.9,29.23,SW,228,0.0,9.0,88,0.00,,,0.00,WUHU216DAVISVP2,2013-07-07 02:39:00,
2013-07-06 22:40:00,71.5,67.8,29.23,SW,228,0.0,9.0,88,0.00,,,0.00,WUHU216DAVISVP2,2013-07-07 02:40:00,
2013-07-06 22:43:00,71.5,67.8,29.23,SW,228,0.0,9.0,88,0.00,,,0.00,WUHU216DAVISVP2,2013-07-07 02:43:00,
2013-07-06 22:45:00,71.4,68.0,29.24,SW,228,0.0,9.0,89,0.00,,,0.00,WUHU216DAVISVP2,2013-07-07 02:45:00,
2013-07-06 22:47:00,71.4,68.0,29.24,SW,228,0.0,9.0,89,0.00,,,0.00,WUHU216DAVISVP2,2013-07-07 02:47:00,
2013-07-06 22:48:00,71.3,67.9,29.24,SW,228,0.0,9.0,89,0.00,,,0.00,WUHU216DAVISVP2,2013-07-07 02:48:00,
2013-07-06 22:51:00,71.2,67.8,29.24,SW,228,1.0,5.0,89,0.00,,,0.00,WUHU216DAVISVP2,2013-07-07 02:51:00,
2013-07-06 22:53:00,71.1,67.7,29.24,SSW,201,0.0,4.0,89,0.00,,,0.00,WUHU216DAVISVP2,2013-07-07 02:53:00,
2013-07-06 22:54:00,71.1,67.7,29.24,SSW,203,0.0,4.0,89,0.00,,,0.00,WUHU216DAVISVP2,2013-07-07 02:54:00,
2013-07-06 22:57:00,71.0,67.6,29.24,SSW,203,1.0,4.0,89,0.00,,,0.00,WUHU216DAVISVP2,2013-07-07 02:57:00,
2013-07-06 22:58:00,70.9,67.5,29.24,SSW,203,1.0,6.0,89,0.00,,,0.00,WUHU216DAVISVP2,2013-07-07 02:58:00,
2013-07-06 22:59:00,70.8,67.4,29.24,SSW,203,0.0,6.0,89,0.00,,,0.00,WUHU216DAVISVP2,2013-07-07 02:59:00,
2013-07-06 23:03:00,70.8,67.7,29.24,WSW,246,1.0,6.0,90,0.00,,,0.00,WUHU216DAVISVP2,2013-07-07 03:03:00,
2013-07-06 23:05:00,70.7,67.6,29.24,WSW,239,2.0,6.0,90,0.00,,,0.00,WUHU216DAVISVP2,2013-07-07 03:05:00,
2013-07-06 23:08:00,70.7,67.6,29.25,WSW,245,5.0,7.0,90,0.00,,,0.00,WUHU216DAVISVP2,2013-07-07 03:08:00,
2013-07-06 23:09:00,70.7,67.6,29.25,WSW,245,4.0,7.0,90,0.00,,,0.00,WUHU216DAVISVP2,2013-07-07 03:09:00,
2013-07-06 23:14:00,70.6,67.5,29.25,SW,232,3.0,9.0,90,0.00,,,0.00,WUHU216DAVISVP2,2013-07-07 03:14:00,
2013-07-06 23:19:00,70.6,67.5,29.25,WSW,249,8.0,10.0,90,0.00,,,0.00,WUHU216DAVISVP2,2013-07-07 03:19:00,
2013-07-06 23:24:00,70.6,67.2,29.25,West,266,0.0,14.0,89,0.00,,,0.00,WUHU216DAVISVP2,2013-07-07 03:24:00,
2013-07-06 23:26:00,70.6,67.2,29.25,West,265,2.0,14.0,89,0.00,,,0.00,WUHU216DAVISVP2,2013-07-07 03:26:00,
2013-07-06 23:30:00,70.6,67.2,29.25,WSW,256,7.0,14.0,89,0.00,,,0.00,WUHU216DAVISVP2,2013-07-07 03:30:00,
2013-07-06 23:32:00,70.6,67.2,29.25,WSW,244,9.0,14.0,89,0.00,,,0.00,WUHU216DAVISVP2,2013-07-07 03:32:00,
2013-07-06 23:33:00,70.5,67.1,29.25,WSW,258,5.0,14.0,89,0.00,,,0.00,WUHU216DAVISVP2,2013-07-07 03:33:00,
2013-07-06 23:36:00,70.5,67.1,29.25,SW,220,5.0,14.0,89,0.00,,,0.00,WUHU216DAVISVP2,2013-07-07 03:36:00,
2013-07-06 23:38:00,70.4,67.3,29.25,WSW,254,3.0,14.0,90,0.00,,,0.00,WUHU216DAVISVP2,2013-07-07 03:38:00,
2013-07-06 23:41:00,70.4,67.3,29.25,WSW,248,6.0,14.0,90,0.00,,,0.00,WUHU216DAVISVP2,2013-07-07 03:41:00,
2013-07-06 23:44:00,70.3,67.2,29.25,WSW,247,1.0,14.0,90,0.00,,,0.00,WUHU216DAVISVP2,2013-07-07 03:44:00,
2013-07-06 23:46:00,70.2,67.1,29.25,SW,226,1.0,14.0,90,0.00,,,0.00,WUHU216DAVISVP2,2013-07-07 03:46:00,
2013-07-06 23:49:00,70.1,67.0,29.25,WSW,239,10.0,14.0,90,0.00,,,0.00,WUHU216DAVISVP2,2013-07-07 03:49:00,
2013-07-06 23:50:00,70.1,67.0,29.25,SW,229,8.0,14.0,90,0.00,,,0.00,WUHU216DAVISVP2,2013-07-07 03:50:00,
2013-07-06 23:51:00,70.1,67.0,29.25,WSW,238,11.0,13.0,90,0.00,,,0.00,WUHU216DAVISVP2,2013-07-07 03:51:00,
2013-07-06 23:55:00,70.0,66.9,29.25,WSW,256,5.0,14.0,90,0.00,,,0.00,WUHU216DAVISVP2,2013-07-07 03:55:00,
2013-07-06 23:57:00,70.0,66.9,29.25,SSW,204,2.0,14.0,90,0.00,,,0.00,WUHU216DAVISVP2,2013-07-07 03:57:00,